ECMWFNIL_sfc_temp_063.txt.gz
Temp
47 46 46 46 47 46 45 42 41 42 45 44 42 42 41 40 38 38 39 39 39 39 38 38 38 38 37 38 38 39 40 39 38 38 39 39 38 37 36 35 36 37
46 45 45 45 45 44 44 44 42 43 45 45 45 43 41 39 38 38 38 37 37 37 37 37 37 37 37 38 38 39 38 38 36 36 37 36 36 36 35 35 35 35
46 45 44 44 43 42 43 44 44 45 45 44 44 42 39 38 37 37 37 37 37 36 36 36 36 36 36 37 37 38 38 37 36 36 36 35 35 35 34 34 34 34
45 45 45 44 44 43 44 43 43 43 42 41 41 40 39 37 37 36 36 36 36 36 36 36 36 36 36 36 37 38 37 36 35 35 34 34 34 34 34 34 33 33
44 44 43 44 44 44 44 43 42 42 41 41 40 38 37 37 36 36 36 36 36 35 35 35 35 35 35 36 37 36 36 35 34 35 35 34 33 33 33 33 33 32
44 44 43 43 43 43 43 42 42 40 40 39 38 37 37 37 37 36 36 35 35 35 35 35 35 35 35 35 36 36 35 34 34 34 34 34 33 34 33 33 33 32
42 42 42 43 42 43 42 42 41 40 39 40 38 37 36 36 36 36 36 36 35 35 35 35 35 34 35 35 36 35 34 34 33 35 34 33 33 32 32 32 32 31
42 42 42 42 41 41 41 40 40 40 40 39 38 37 36 36 36 36 36 35 35 35 35 35 35 34 34 35 34 34 33 33 33 34 33 32 32 32 32 31 31 29
42 41 40 40 40 40 40 39 39 39 39 38 38 35 35 36 36 36 35 35 35 35 34 34 34 33 34 35 35 34 34 33 33 33 33 32 32 31 31 30 29 29
41 40 40 40 40 40 39 39 37 37 37 38 37 35 35 35 36 35 35 35 35 34 34 34 33 33 34 35 35 34 34 33 33 33 33 33 32 31 29 29 29 29
40 40 39 39 39 40 40 39 38 38 37 37 35 35 35 35 35 35 35 35 35 35 34 34 34 34 34 34 34 34 34 33 33 33 33 33 32 31 30 30 29 30
40 39 39 39 39 39 39 39 38 37 36 36 35 34 34 35 34 34 35 35 36 36 36 35 35 34 34 34 33 33 33 33 33 33 33 32 31 30 30 30 30 30
40 39 39 39 39 39 39 38 37 37 36 35 35 35 35 34 34 34 35 36 36 35 35 34 33 33 34 34 33 33 33 32 32 32 32 31 30 30 30 30 30 30
40 40 39 39 40 39 38 37 36 36 36 35 35 36 35 35 34 35 35 36 35 35 35 34 33 33 33 33 33 32 32 32 32 31 31 31 30 30 30 30 29 29
40 39 39 39 38 38 37 36 36 35 35 35 35 35 35 35 35 35 34 34 34 34 33 33 33 33 33 33 32 32 32 32 31 31 31 30 29 28 28 28 29 29
40 39 38 38 37 37 36 36 35 35 34 34 34 35 35 35 35 35 34 33 33 33 33 33 33 33 33 34 34 32 32 31 31 30 31 30 29 27 27 28 28 28
39 38 38 37 37 37 36 34 34 33 33 33 33 33 33 33 33 33 33 33 33 33 32 33 33 32 34 36 36 35 32 31 30 29 30 30 30 28 28 27 27 28
39 38 37 36 36 35 33 33 33 32 32 32 32 32 32 32 32 33 33 33 33 33 33 32 32 33 36 36 37 36 33 31 30 29 28 30 30 29 29 29 28 27
38 37 36 35 34 34 33 33 32 32 31 31 31 32 32 31 33 33 32 33 33 32 32 32 32 35 36 37 37 37 35 32 29 29 28 29 30 29 29 29 28 27
37 36 35 34 34 34 33 32 32 31 32 32 33 32 31 31 31 31 32 32 32 32 31 31 31 34 37 37 37 37 36 34 29 29 29 30 30 29 29 29 29 28
36 36 35 34 33 33 32 32 32 32 32 32 32 32 31 30 31 30 30 29 29 30 30 30 30 35 36 37 37 37 37 35 29 29 29 29 29 29 29 29 29 29
34 34 34 33 33 32 32 32 32 31 31 31 31 31 31 31 30 30 29 28 29 28 29 28 29 35 36 36 37 37 37 34 30 28 28 27 27 29 29 29 29 28
34 33 33 32 32 32 31 31 31 31 31 31 30 31 30 29 29 29 29 28 27 27 27 27 28 33 36 36 36 37 36 33 32 29 28 26 27 29 29 29 28 27
33 32 31 31 31 31 31 31 31 31 31 31 31 30 29 29 29 28 27 27 27 26 27 27 26 31 35 35 36 36 35 33 32 30 29 28 27 29 28 28 28 27
33 33 33 32 31 31 31 31 31 31 31 31 30 30 28 28 28 28 27 26 27 26 28 27 26 29 34 35 36 36 35 33 32 31 29 29 29 29 30 28 27 27
32 32 32 32 31 31 31 31 31 29 29 29 29 29 28 28 27 27 26 26 26 26 27 27 27 27 29 34 34 34 35 33 32 31 29 29 30 30 29 29 27 25

ECMWFNIL_sfc_temp_066.txt.gz
Temp
53 53 53 53 54 55 53 53 51 50 50 51 48 48 46 48 48 46 45 45 46 47 47 49 51 52 51 52 53 54 54 52 52 52 50 51 50 49 47 48 49 51
53 52 52 53 54 53 53 52 52 52 51 50 49 49 50 50 47 45 43 44 44 45 47 49 50 50 50 51 50 51 51 50 48 46 48 48 48 47 46 47 47 48
54 52 52 50 50 50 50 50 50 50 51 51 51 51 49 47 45 45 44 44 44 45 46 47 48 48 48 49 49 50 50 48 47 46 47 47 48 48 46 47 46 46
52 52 51 50 49 49 50 50 50 50 50 51 50 49 46 44 44 44 43 42 43 43 45 46 47 47 47 47 48 49 48 48 47 47 47 47 47 47 46 46 45 45
50 50 50 51 51 50 50 49 48 48 48 50 49 46 44 44 44 43 42 42 43 43 45 45 46 46 46 47 47 47 47 46 45 47 47 46 46 45 45 46 46 45
51 50 50 49 50 50 48 47 47 48 48 47 47 45 44 44 45 44 43 42 42 43 45 46 45 45 46 46 47 47 47 46 46 47 47 46 45 45 44 45 45 45
50 50 50 51 50 48 48 47 46 47 46 45 43 43 44 43 43 43 43 43 42 43 45 45 45 45 46 47 48 47 47 46 46 47 47 46 45 43 44 45 45 43
49 49 48 48 46 45 46 46 44 44 44 43 43 43 42 41 42 42 43 43 42 43 45 46 45 45 46 47 47 46 45 43 45 46 45 44 43 43 43 43 43 41
49 47 45 45 45 46 44 44 44 43 43 42 43 43 40 40 42 43 43 42 42 44 45 45 45 45 46 47 46 46 44 43 44 45 44 43 43 43 42 41 41 40
49 47 46 46 45 45 44 43 43 43 42 41 42 42 39 39 40 43 43 42 43 45 45 45 44 45 45 46 46 46 45 44 44 44 45 44 43 42 40 40 40 38
49 48 47 47 46 45 43 43 43 43 43 44 43 41 40 39 39 41 41 41 42 44 44 44 44 44 44 45 45 45 45 44 44 44 43 43 42 41 38 40 38 36
47 47 47 46 45 44 43 43 42 42 43 44 43 39 39 40 40 42 42 42 43 45 45 44 44 44 44 44 44 44 44 43 43 43 42 43 42 41 39 38 36 35
46 46 46 45 44 44 45 44 43 42 43 43 41 38 38 38 39 40 41 42 43 44 43 43 42 43 44 42 42 42 42 42 42 42 41 39 37 36 36 36 36 35
47 47 47 46 45 45 44 43 42 41 41 40 39 38 37 38 38 38 39 40 41 42 42 42 42 41 40 40 41 42 41 39 38 36 35 35 35 36 37 36 34 33
47 47 47 47 46 45 42 41 40 40 40 40 39 38 38 38 38 38 38 39 39 39 40 40 39 40 41 40 38 36 36 36 36 36 37 37 36 35 34 33 32 32
47 45 45 45 44 43 42 40 39 38 39 39 38 39 39 39 39 39 38 37 37 38 39 40 40 39 36 36 36 37 38 37 38 38 38 38 36 32 31 31 31 32
46 45 44 43 43 43 41 39 38 37 38 38 37 36 36 37 38 37 37 37 36 36 36 36 37 36 35 37 38 37 39 39 37 37 36 35 33 31 30 30 30 31
45 44 43 42 41 41 39 37 37 36 36 36 35 35 35 35 35 36 37 37 36 36 35 35 36 35 37 37 38 38 38 38 37 34 33 34 32 31 31 31 30 30
45 43 42 41 41 39 37 36 35 35 35 34 34 35 35 34 35 36 36 36 36 35 35 36 36 36 37 38 38 38 37 36 35 33 32 32 32 31 31 31 31 30
44 40 39 40 39 37 36 35 35 35 35 35 34 34 33 33 33 33 34 35 36 35 36 36 35 36 37 37 37 37 37 37 34 32 32 31 32 31 31 31 31 30
42 41 39 38 37 36 35 35 35 35 34 34 34 33 33 32 33 33 33 34 34 34 35 34 34 36 37 38 38 37 37 36 33 32 31 30 32 31 31 31 31 30
42 41 39 37 36 35 35 34 34 34 33 34 34 34 34 34 33 33 32 32 33 33 32 32 33 36 37 37 38 38 37 33 31 30 30 29 29 31 30 31 30 31
42 40 38 37 36 35 34 34 33 33 34 34 33 33 32 32 31 32 32 31 30 30 30 30 31 35 37 37 37 38 35 33 32 31 30 29 29 30 30 30 30 31
42 38 37 36 35 34 34 34 34 34 33 34 33 31 31 31 30 29 30 30 30 30 30 29 30 33 36 37 37 38 35 34 33 32 30 29 29 30 30 31 31 30
39 38 36 35 35 34 34 33 33 33 33 33 33 32 31 30 30 29 28 29 29 29 30 30 30 32 36 36 37 37 35 34 34 33 31 31 30 30 31 31 32 31
37 36 35 34 34 34 34 34 33 32 32 32 32 31 30 30 29 29 27 28 28 28 29 29 29 30 33 36 36 36 36 34 35 34 33 32 32 32 32 32 31 31

ECMWFNIL_sfc_temp_072.txt.gz
Temp
52 52 53 53 53 53 51 52 53 53 52 52 50 50 49 48 48 47 48 48 48 48 49 49 49 49 50 50 49 48 48 48 48 48 48 48 47 46 47 45 45 44
52 52 51 52 52 53 52 54 54 54 52 51 51 50 49 48 47 47 47 46 46 47 47 46 47 49 49 49 48 48 46 46 46 47 46 45 42 44 43 44 45 44
51 51 51 51 53 53 54 53 54 54 53 50 49 49 49 48 48 47 46 46 46 46 46 47 47 48 48 48 48 47 46 45 45 43 44 42 39 40 39 39 38 39
50 50 50 50 51 53 53 51 51 51 51 50 50 50 48 47 48 46 45 44 45 44 44 45 45 44 46 47 46 46 45 45 45 42 41 39 39 38 38 38 38 37
49 49 49 48 49 51 51 51 51 50 49 50 50 48 45 44 45 42 41 41 41 41 41 42 43 43 42 43 44 43 40 41 41 41 40 39 38 38 37 37 37 37
49 49 49 49 50 51 51 50 50 50 49 49 48 45 44 43 43 42 41 40 40 39 40 40 40 40 40 41 41 40 41 40 39 41 40 39 37 37 37 36 36 36
48 47 48 48 48 50 51 50 49 48 48 47 44 43 43 42 41 41 41 40 40 39 39 39 39 39 40 41 41 40 37 38 40 40 39 37 37 36 37 36 35 35
47 45 46 45 45 45 47 47 46 46 46 43 43 42 43 42 41 40 40 39 39 39 39 39 39 39 40 41 41 40 39 40 39 38 39 38 36 37 37 38 37 36
45 44 43 42 42 42 43 43 44 45 43 43 42 41 41 42 41 40 40 39 39 39 39 39 39 40 40 41 41 41 40 39 40 39 38 37 38 39 38 38 37 37
43 43 41 41 41 41 41 41 42 42 42 43 42 41 40 40 40 40 39 39 39 39 39 39 39 39 39 40 40 41 40 40 39 38 38 39 38 38 38 38 37 36
42 41 41 40 41 40 40 41 41 42 41 42 41 40 40 39 39 39 39 39 39 39 39 39 40 39 39 39 39 40 40 40 40 39 38 38 38 39 38 38 37 36
42 41 41 41 41 40 40 39 40 39 39 39 41 40 39 39 39 39 39 39 39 39 39 39 39 39 40 40 40 39 39 39 38 38 38 39 39 39 39 38 37 35
41 41 41 41 40 40 39 39 38 37 37 38 39 40 39 38 38 38 38 39 39 39 39 39 39 39 39 40 39 39 39 39 38 38 38 39 39 39 38 37 36 34
41 40 40 40 40 39 39 38 38 37 37 37 37 38 38 38 38 38 37 38 38 38 38 39 39 39 39 40 40 40 39 38 38 38 38 38 37 37 36 36 35 34
40 41 40 40 39 39 38 38 37 37 37 37 37 38 38 38 38 37 37 37 37 37 37 37 37 38 39 40 39 39 39 39 38 38 38 37 36 35 35 34 34 34
40 40 40 39 39 39 38 37 37 37 37 37 37 38 38 38 37 37 37 37 37 37 38 37 38 38 37 40 40 39 38 38 38 38 38 37 35 34 33 33 33 34
40 40 39 38 38 38 37 37 36 36 36 37 36 36 36 36 37 37 37 37 37 37 37 38 38 38 38 41 41 41 38 38 38 37 37 36 35 34 32 32 32 33
40 39 38 38 37 37 36 35 35 34 34 34 34 34 34 35 35 36 36 37 37 37 37 38 38 38 41 41 41 41 40 38 37 35 34 35 35 34 32 32 31 31
39 38 38 37 37 36 35 34 34 33 34 34 34 34 33 33 35 35 35 35 36 36 36 36 36 39 41 41 41 42 41 38 35 36 34 34 34 33 32 32 31 29
38 37 37 37 36 35 34 33 33 33 34 35 35 34 34 34 34 34 34 35 35 35 35 35 35 38 40 40 40 40 40 38 34 34 34 34 34 33 33 32 31 29
38 37 37 35 35 34 34 33 33 32 33 34 34 34 34 33 33 33 33 33 33 34 33 33 33 38 39 39 39 40 39 37 33 33 33 32 33 33 32 31 30 30
37 37 36 35 34 34 33 32 33 33 33 34 34 34 34 33 33 33 33 32 32 32 32 31 33 38 38 39 39 39 38 34 33 32 31 30 30 32 31 31 31 31
37 36 35 34 34 33 33 32 32 33 34 34 33 33 33 33 32 32 32 32 32 32 31 30 32 36 38 38 39 39 35 32 31 31 30 29 29 31 31 31 31 31
36 36 35 34 33 33 32 32 33 34 34 34 33 32 32 32 32 32 32 32 31 31 31 30 31 35 37 38 38 37 34 31 31 30 29 29 28 29 30 30 30 31
36 35 34 34 33 32 32 31 32 33 33 33 33 33 31 31 32 31 31 31 31 31 31 31 31 34 37 38 38 37 34 31 31 30 28 28 28 28 28 28 29 30
35 34 34 33 32 31 31 31 32 33 33 33 32 32 31 31 31 30 29 29 29 30 30 31 31 33 35 37 37 36 35 32 31 30 28 28 28 28 27 27 27 27

ECMWFNIL_sfc_temp_078.txt.gz
Temp
51 50 51 51 51 50 50 49 49 49 49 48 49 50 50 51 50 50 50 50 50 51 52 53 53 53 54 53 53 52 51 50 50 50 50 50 49 49 48 47 47 46
49 49 48 49 49 48 48 49 49 49 49 48 49 49 48 48 48 49 48 48 48 50 51 51 52 52 53 52 52 52 51 50 50 50 49 48 49 48 48 48 47 46
48 48 48 48 49 48 48 47 48 48 48 48 48 47 47 47 47 47 48 48 48 48 49 50 51 51 52 52 51 50 50 49 49 49 48 48 48 48 48 48 46 46
48 48 49 48 48 48 47 46 46 46 46 46 46 46 46 46 47 47 48 47 48 48 48 49 49 49 50 50 50 50 50 50 50 48 47 47 46 47 47 46 45 44
48 48 48 47 47 47 46 47 47 46 46 47 46 45 45 45 45 45 45 45 46 46 46 47 47 47 47 47 48 48 48 48 47 46 46 45 45 44 45 42 42 42
46 47 47 47 46 46 46 46 47 46 46 44 46 45 45 45 45 45 44 43 42 42 43 43 43 44 44 45 44 45 44 43 43 43 43 43 42 41 42 41 41 41
45 44 45 45 44 45 46 46 46 45 45 45 42 44 43 43 43 44 44 43 43 42 43 42 42 42 41 42 42 42 42 42 42 42 42 42 41 39 39 40 40 41
43 41 44 43 44 44 44 45 44 44 43 40 41 42 41 42 42 43 43 43 42 42 42 42 42 43 41 41 42 41 41 42 41 41 41 41 40 40 38 38 39 39
41 42 41 41 42 43 42 42 42 40 39 41 40 38 38 40 42 42 43 43 42 41 41 41 41 41 40 40 41 42 42 41 41 40 41 40 39 39 39 38 37 37
41 41 39 40 40 41 41 40 39 39 37 39 39 38 38 39 40 42 42 42 42 41 41 41 40 39 39 39 41 41 42 41 40 40 40 41 40 40 38 37 37 36
40 39 39 40 40 40 40 39 38 37 37 39 38 38 38 38 38 39 41 41 41 41 40 40 40 40 39 39 39 40 41 41 40 40 40 40 40 40 37 37 37 36
40 39 40 40 40 39 39 38 38 38 38 37 38 39 38 38 39 39 40 40 41 41 41 41 40 40 40 40 40 39 39 39 39 39 39 39 39 39 38 37 37 36
41 41 41 41 40 40 38 38 38 38 38 38 37 39 39 38 37 38 38 40 41 40 40 40 40 39 39 39 39 39 39 38 38 38 38 38 38 38 37 37 37 36
42 42 41 41 41 40 39 38 38 37 37 37 36 38 38 38 38 38 38 39 40 40 40 39 39 39 39 39 39 38 38 38 38 37 37 36 36 36 36 36 36 35
44 41 40 39 38 38 38 38 37 36 36 36 36 37 38 38 38 38 38 38 39 39 38 38 38 38 38 38 38 38 38 38 38 37 37 36 35 35 35 35 35 35
42 39 38 36 36 37 37 36 36 36 36 36 36 37 37 36 36 36 37 38 38 38 38 37 37 38 37 38 39 38 38 38 37 37 37 36 35 34 34 34 34 34
40 39 36 37 37 35 35 35 36 36 36 36 36 35 36 35 35 35 36 37 38 38 37 37 37 37 37 39 40 40 38 37 36 36 36 36 35 34 33 33 34 34
40 38 37 37 36 37 37 36 36 35 36 36 35 35 35 34 34 35 35 36 37 37 37 37 37 37 39 39 40 40 38 37 37 36 35 36 35 35 34 33 32 32
38 38 38 37 37 37 36 35 35 35 35 35 35 35 33 34 34 34 34 35 36 36 36 37 37 38 39 39 40 40 40 38 36 36 35 35 35 34 33 33 32 31
37 37 38 38 36 35 35 35 35 35 35 35 34 32 33 33 32 33 33 34 35 36 36 36 36 37 39 39 39 40 40 38 35 35 35 35 34 34 34 33 33 32
37 37 37 36 35 35 35 35 35 35 34 33 33 33 33 33 33 33 33 33 34 35 36 35 36 37 38 39 40 40 40 39 35 35 35 34 35 35 34 34 34 33
36 36 36 36 35 34 34 34 34 34 34 32 32 31 32 31 31 32 32 32 33 34 34 34 35 37 38 39 39 40 40 37 34 34 34 33 33 34 34 34 34 34
35 36 36 35 34 34 34 34 34 33 32 31 31 31 31 31 32 32 33 33 33 33 33 34 33 36 37 38 39 40 38 35 34 33 33 32 31 33 34 34 34 34
34 35 35 35 34 34 35 34 34 33 32 31 32 31 31 31 31 31 31 33 33 33 33 33 33 34 37 38 39 40 37 34 34 33 31 31 31 32 33 33 33 33
34 34 35 35 35 35 35 34 32 32 31 30 31 31 31 30 30 30 30 32 33 33 33 33 32 33 37 38 38 39 37 33 33 32 30 30 30 30 32 32 32 33
34 34 35 35 35 34 33 33 31 29 29 29 29 30 29 29 29 30 31 31 32 32 32 32 32 33 35 38 39 39 37 34 33 31 30 29 29 30 29 30 31 31

ECMWFNIL_sfc_temp_081.txt.gz
Temp
50 50 51 51 51 51 51 50 49 49 49 49 49 50 50 52 51 52 52 52 52 52 53 54 54 54 54 55 55 55 55 55 54 54 53 52 51 51 50 50 49 49
49 49 48 49 48 47 48 49 49 49 49 49 49 49 48 47 48 49 50 50 49 50 51 51 52 53 53 53 54 54 54 54 53 53 52 51 50 50 50 50 50 49
48 47 48 48 49 48 48 48 48 48 48 48 48 47 47 45 46 46 47 48 48 48 48 48 50 51 52 52 52 52 52 52 52 51 50 50 50 49 50 49 48 48
46 47 48 48 48 48 47 46 46 46 45 46 46 46 46 45 45 45 45 45 46 46 46 47 47 48 49 50 51 50 51 51 51 50 49 49 48 48 49 49 48 46
46 46 46 47 46 46 45 46 46 46 46 47 44 43 44 43 43 43 43 44 44 45 45 46 47 47 48 48 49 49 49 49 49 49 48 48 48 48 48 47 46 45
43 45 46 46 46 45 45 46 47 46 46 44 45 44 44 43 43 43 43 43 42 44 44 44 46 46 46 47 47 48 48 46 45 46 47 46 46 45 46 45 44 44
44 43 44 44 44 45 45 46 45 44 44 44 40 43 41 42 42 43 43 43 42 42 43 44 44 44 43 44 44 45 44 44 43 43 43 43 42 42 41 42 42 43
43 42 43 42 43 43 43 44 43 43 42 39 41 42 41 43 43 42 41 41 41 42 41 42 43 45 43 41 42 42 42 44 43 42 42 42 41 42 40 41 41 42
40 41 41 40 41 42 41 42 42 39 39 41 41 40 38 40 41 40 40 40 41 40 41 41 41 42 41 40 41 42 42 42 42 42 42 42 42 42 42 41 40 40
40 40 38 39 40 41 41 41 41 40 39 40 41 39 39 38 38 40 39 39 40 40 39 40 40 40 40 40 41 41 41 42 42 41 41 41 42 42 41 40 40 39
39 38 38 39 40 40 41 41 40 40 39 40 40 39 39 38 37 37 39 39 40 40 40 39 39 40 41 40 39 39 40 41 41 41 41 41 41 41 39 40 40 39
39 38 39 40 40 40 40 39 38 38 39 38 39 40 39 37 38 37 38 39 39 39 39 40 39 40 40 40 40 39 39 40 40 40 40 40 40 40 40 39 39 39
40 40 40 40 39 39 37 37 38 37 37 38 36 38 39 38 37 38 36 37 39 38 39 39 39 39 39 40 39 39 39 39 39 39 39 39 39 39 39 39 39 39
41 40 38 39 38 37 37 37 37 36 36 36 35 37 37 38 38 38 37 37 38 38 38 38 38 39 39 39 38 37 38 38 38 38 38 38 38 38 38 38 38 38
41 39 37 37 37 37 38 37 37 36 36 36 36 37 37 38 38 38 37 37 37 37 37 37 37 39 39 39 39 38 38 38 38 38 38 38 37 37 37 37 36 36
39 38 38 36 37 38 38 37 36 35 35 35 36 37 37 37 37 37 37 38 37 36 36 37 37 38 38 39 40 39 38 38 38 38 37 37 36 36 35 35 35 35
37 38 36 37 38 37 36 36 36 35 35 35 35 35 36 36 35 36 36 36 37 37 36 36 37 37 38 40 40 41 39 38 37 37 37 37 36 36 35 34 34 34
37 37 37 37 36 37 36 35 34 34 35 35 35 35 35 34 34 36 36 36 36 36 36 36 36 38 40 39 40 41 40 37 37 37 36 37 36 36 36 35 34 33
36 36 37 36 37 36 36 34 34 35 35 35 35 35 32 34 35 35 35 35 35 35 35 36 36 39 40 40 39 40 41 39 37 36 36 36 36 36 35 34 34 33
35 36 36 37 36 35 34 34 34 35 35 35 35 33 34 35 34 34 35 35 35 35 35 35 35 37 40 40 40 40 40 40 36 35 35 36 36 35 35 34 33 32
35 36 36 36 36 35 34 34 35 35 35 35 35 35 35 35 35 34 34 34 34 34 34 34 35 38 39 40 40 40 40 40 36 35 35 35 35 35 35 34 34 33
35 35 35 35 35 34 34 35 35 35 35 35 33 34 33 33 33 33 34 34 34 33 33 33 34 38 39 39 39 40 40 37 35 34 34 34 34 34 34 34 33 33
35 35 35 35 35 34 35 35 35 35 34 33 33 33 33 32 33 33 33 33 33 32 32 33 33 36 38 39 39 39 39 36 35 34 34 33 33 33 34 33 33 33
35 34 35 35 35 35 35 35 35 34 34 33 33 33 33 33 32 32 32 32 32 32 32 32 32 34 37 38 39 39 38 35 35 34 33 33 32 32 32 32 32 33
34 33 33 34 34 35 35 35 35 35 34 29 32 32 33 32 30 31 30 30 30 31 32 32 32 33 36 37 38 39 37 35 35 34 32 31 30 30 31 31 32 32
34 33 33 33 34 34 34 34 33 32 31 30 30 30 30 29 28 29 29 29 29 29 30 31 31 32 34 37 37 38 38 35 35 33 31 30 30 30 30 30 30 31

ECMWFNIL_sfc_temp_084.txt.gz
Temp
50 49 51 51 51 51 51 50 49 50 50 49 50 50 51 52 51 53 54 55 55 56 56 56 56 56 55 55 55 54 54 54 54 53 53 52 51 51 51 51 50 51
48 48 48 49 49 48 49 49 50 50 50 49 49 49 48 47 48 50 52 53 53 54 54 55 55 55 55 54 54 54 54 54 53 53 53 52 52 52 52 51 51 52
46 46 47 48 49 48 48 48 48 48 48 48 47 46 47 46 47 46 48 50 51 51 52 52 52 52 53 53 53 52 52 52 52 52 51 51 51 51 51 51 51 51
45 46 47 47 47 47 47 46 46 45 44 45 46 47 46 45 44 45 45 45 47 47 48 49 49 50 50 51 51 51 51 51 52 51 51 51 51 52 52 51 50 50
44 44 44 45 45 45 44 45 46 45 45 46 44 43 43 43 43 43 42 43 43 44 44 44 44 45 45 47 48 49 49 49 50 49 49 49 49 49 49 49 49 48
41 43 44 44 45 44 45 45 46 45 45 43 45 44 44 43 42 42 42 42 42 42 43 43 43 43 43 45 46 47 48 48 48 48 48 48 49 48 48 48 47 46
42 41 42 42 42 43 44 45 45 44 45 45 40 42 41 42 42 42 42 42 42 41 42 43 43 43 43 44 45 46 46 47 46 45 46 46 44 44 44 44 44 44
41 38 41 39 41 41 42 43 42 42 41 38 41 43 41 43 43 43 42 41 41 42 41 41 42 43 42 43 44 44 44 45 44 43 42 43 42 43 42 42 42 42
37 37 37 37 38 39 40 41 41 38 37 40 41 39 36 39 40 39 39 39 40 40 41 41 41 41 41 42 42 42 42 42 43 42 42 42 42 42 42 42 41 41
36 36 35 35 37 39 38 38 38 37 36 38 39 37 37 36 36 38 38 38 39 40 40 40 41 40 40 40 42 42 41 42 41 41 41 42 42 42 42 41 41 41
37 35 35 35 36 37 37 37 36 36 35 37 37 37 37 36 36 36 38 38 40 40 41 40 41 41 40 40 40 40 41 41 41 41 41 41 41 41 40 41 41 40
37 35 35 36 36 36 37 37 36 35 36 36 36 38 37 36 37 36 37 39 40 40 41 41 40 40 40 40 40 39 39 39 39 40 40 40 40 40 40 41 41 41
37 37 37 36 36 37 36 36 36 35 35 37 35 36 37 37 36 37 36 37 39 40 40 40 40 40 39 39 39 39 39 38 38 38 39 39 40 40 40 40 40 40
38 36 36 37 36 36 36 36 36 35 36 35 34 36 36 37 37 38 37 36 37 38 39 38 39 39 39 39 38 38 38 37 37 38 38 38 38 39 39 39 39 39
37 37 36 36 36 36 36 36 36 35 35 35 34 35 36 36 36 37 37 37 37 37 37 37 37 38 38 38 37 37 37 37 37 37 37 38 38 38 38 38 38 38
36 35 36 35 36 36 37 36 36 35 34 34 35 35 35 35 35 35 36 37 37 37 37 37 38 38 37 39 39 38 37 37 37 36 36 37 37 37 37 37 37 37
35 36 35 36 36 35 35 36 36 35 34 34 34 34 35 35 34 35 36 36 37 37 38 37 38 38 38 40 41 41 38 36 36 36 36 36 37 37 37 36 36 36
35 35 35 35 35 36 35 35 34 34 34 34 34 34 34 33 33 35 36 36 37 36 37 37 38 38 40 41 41 42 40 37 36 36 37 37 37 37 37 37 36 35
35 35 35 35 35 35 34 34 34 34 34 34 35 35 32 33 35 35 35 35 36 36 36 37 37 39 40 41 41 41 42 40 37 37 36 36 37 37 36 36 35 35
34 35 35 35 35 35 34 34 34 34 34 33 34 33 33 33 33 34 34 34 35 35 36 37 37 37 40 40 40 41 41 41 38 37 36 37 37 37 37 36 35 35
35 35 34 35 34 34 34 34 34 34 34 34 34 34 34 34 35 34 34 34 34 34 34 35 36 38 39 40 40 41 41 40 37 36 36 35 36 36 36 36 36 35
34 34 34 34 34 34 34 34 34 34 35 35 34 33 33 32 33 33 34 34 34 33 34 34 35 38 38 39 40 41 41 38 36 36 35 35 35 35 35 35 35 35
33 33 33 33 33 33 33 34 34 35 34 33 33 34 33 33 34 34 34 33 33 33 33 34 34 36 38 39 39 40 39 36 35 35 35 34 35 35 35 34 34 34
32 32 32 32 33 33 33 34 34 33 33 33 33 34 34 34 34 33 33 32 32 32 33 33 34 34 36 38 39 40 38 35 35 35 34 34 34 34 34 34 33 33
32 32 32 32 32 32 33 33 33 34 33 32 32 32 32 32 31 31 32 31 30 31 32 32 32 33 36 37 38 39 38 34 34 34 34 34 33 33 33 32 32 32
32 31 31 31 31 32 32 32 32 31 32 32 32 30 31 31 29 30 30 31 30 29 30 30 31 31 32 36 38 38 39 35 34 34 34 34 33 32 31 31 31 31

ECMWFNIL_sfc_temp_087.txt.gz
Temp
51 52 53 54 54 55 55 54 54 54 54 54 54 55 55 56 56 57 58 58 58 58 58 59 58 58 58 57 57 57 56 56 56 56 55 54 54 54 53 53 53 52
50 50 50 51 52 52 52 53 54 53 54 53 53 54 54 53 53 54 55 56 56 56 57 57 57 57 57 56 55 55 55 55 55 54 54 53 53 53 52 52 52 52
47 48 48 50 51 51 51 52 51 52 52 53 52 52 52 52 52 51 52 54 55 55 55 55 55 55 55 55 55 55 54 54 54 53 52 53 53 52 52 52 52 52
46 47 48 48 48 49 50 49 50 50 49 49 50 51 51 51 50 50 50 48 51 52 53 53 53 53 54 54 54 54 54 54 55 54 52 52 51 51 51 51 51 51
45 46 46 47 47 48 47 48 49 49 49 49 49 49 48 48 48 48 48 48 48 49 49 50 50 51 50 51 51 51 52 52 52 51 51 51 52 51 51 51 51 50
43 44 44 45 46 46 47 47 48 48 48 47 49 48 48 47 47 47 47 46 47 47 47 47 47 48 48 49 49 49 50 50 50 50 50 50 50 51 51 51 50 49
43 43 43 43 44 44 45 46 47 46 47 47 44 46 45 45 46 46 46 46 46 46 46 46 46 46 47 46 47 47 48 48 48 48 48 49 48 48 49 49 49 49
42 41 41 41 41 42 42 43 44 44 44 42 43 45 44 45 45 45 45 45 45 45 45 45 45 46 45 45 45 46 46 47 47 47 46 46 46 46 45 46 45 44
38 39 39 39 39 41 41 42 42 42 41 42 43 44 41 43 44 44 44 43 43 43 44 44 44 44 44 44 44 45 45 45 46 46 45 44 44 44 44 44 43 43
39 38 37 37 38 39 39 40 40 40 39 40 41 41 41 41 40 41 41 41 41 41 42 42 42 42 42 42 44 44 44 44 44 44 44 44 44 44 44 43 42 42
40 39 38 39 39 38 38 38 38 38 38 39 39 39 40 40 40 39 39 40 41 41 42 42 41 42 42 42 42 43 43 43 43 43 43 43 43 43 41 43 43 42
39 39 39 39 39 39 39 38 38 38 39 38 38 39 39 39 39 39 39 39 40 40 41 41 41 41 41 42 42 41 41 41 41 42 42 42 42 42 42 42 42 43
39 39 38 38 38 38 38 38 38 38 38 39 38 38 38 39 39 39 39 39 39 39 40 40 41 41 41 41 41 41 41 41 40 40 41 41 42 41 41 42 42 42
38 38 38 38 38 38 38 38 38 38 38 38 37 37 37 38 39 39 39 39 39 39 39 39 39 40 40 40 41 41 40 40 40 40 40 40 40 40 40 41 41 42
38 38 38 38 38 39 39 38 38 38 38 37 37 37 37 37 38 38 38 38 39 38 38 39 39 39 40 40 40 40 40 40 40 40 39 39 40 40 40 40 40 40
37 37 38 37 38 38 38 38 38 37 37 37 37 37 37 37 37 37 37 37 37 38 38 38 39 40 38 38 39 40 40 40 40 39 39 39 39 39 39 39 40 40
37 37 36 37 37 37 37 37 37 37 36 37 37 37 37 37 36 37 37 37 37 37 37 38 39 39 38 40 41 41 40 39 39 39 38 38 38 38 38 39 39 40
35 36 36 36 35 36 36 36 35 35 36 36 36 36 37 36 36 37 37 37 37 37 37 37 38 38 40 40 41 41 40 40 39 39 39 39 38 38 39 38 38 39
35 35 35 35 35 35 35 35 34 34 35 35 35 36 35 35 36 36 36 36 36 36 36 37 37 38 39 40 40 41 41 40 40 39 39 39 38 38 38 38 38 38
35 35 35 35 34 34 34 34 34 35 35 35 35 35 35 35 35 35 36 36 36 36 36 37 37 37 39 39 40 40 40 40 40 40 39 39 39 39 39 38 38 38
34 34 34 34 34 34 34 34 34 34 35 35 35 35 35 35 35 35 36 35 36 36 36 36 37 38 39 39 40 40 41 40 40 39 38 38 39 39 39 39 39 39
33 33 33 33 34 33 33 33 34 34 34 35 34 35 35 34 35 34 34 35 35 35 35 35 37 38 38 39 39 40 41 39 38 37 37 37 37 38 38 39 39 38
33 32 32 32 32 32 32 33 33 33 34 34 33 34 34 34 34 35 35 34 34 34 34 34 36 37 37 38 39 40 39 38 37 37 37 37 38 38 38 38 38 38
32 32 31 31 31 31 31 32 32 33 33 33 32 32 33 34 34 34 34 34 33 33 33 33 34 35 37 38 38 39 38 36 37 37 36 36 36 37 38 38 37 35
31 30 30 30 30 30 30 30 31 31 31 31 31 31 32 33 33 32 33 33 32 32 32 32 33 34 35 37 38 38 38 36 36 36 35 35 36 36 37 36 36 35
30 29 29 29 29 29 30 30 30 30 30 30 31 31 31 32 31 31 30 32 32 31 31 32 31 32 33 35 36 37 38 37 37 35 34 35 35 36 36 36 35 35

ECMWFNIL_sfc_temp_090.txt.gz
Temp
58 58 57 58 59 59 59 59 60 60 60 61 61 62 62 64 64 63 63 63 62 62 63 63 63 62 62 62 61 61 59 59 58 58 58 57 57 57 57 58 57 56
59 59 59 57 57 57 57 58 58 59 59 61 61 62 62 63 63 62 62 61 62 61 62 62 62 62 62 61 60 59 59 59 58 60 59 59 59 58 57 57 56 56
58 58 58 58 59 59 59 60 59 59 59 60 61 60 60 60 60 60 61 61 61 60 60 60 60 61 60 60 59 58 58 58 57 58 56 56 57 56 57 56 57 56
56 56 57 57 58 58 59 58 59 59 60 59 59 60 59 58 58 58 58 57 58 59 59 59 58 58 58 59 58 57 57 57 58 58 56 56 56 56 55 55 54 54
54 55 56 56 56 56 56 56 57 58 58 59 59 59 59 58 58 57 57 57 57 57 57 57 57 56 56 56 56 54 55 55 56 56 55 54 56 55 55 55 54 52
55 55 54 54 55 55 56 56 56 57 57 57 58 58 58 58 57 57 57 56 57 57 55 55 54 54 54 54 53 53 53 53 53 54 53 53 53 55 54 54 52 52
54 54 53 54 53 54 54 55 55 55 55 55 55 54 55 55 55 56 56 56 56 56 56 55 55 54 53 52 52 51 52 51 51 52 51 51 52 52 53 52 52 51
52 53 53 53 53 54 53 54 53 54 53 52 52 54 54 53 54 54 54 54 53 53 54 55 54 54 53 52 50 50 50 51 50 50 50 50 50 50 50 51 50 49
52 51 51 51 51 53 52 53 52 52 52 51 52 53 53 53 52 52 53 52 51 51 52 51 52 51 51 50 49 49 48 48 49 48 48 48 48 48 48 49 47 46
51 50 50 50 50 51 50 51 50 51 50 50 51 51 51 52 51 51 50 49 48 48 47 47 46 47 47 47 47 47 47 47 47 47 47 47 47 47 47 46 46 45
50 49 49 49 49 49 48 48 49 49 49 49 49 49 50 50 50 49 48 46 45 46 46 46 45 45 45 45 46 46 45 45 46 46 46 46 46 47 43 45 45 44
49 49 49 49 48 48 48 48 48 48 48 48 48 48 48 48 48 48 48 47 46 46 45 45 45 44 44 43 44 44 44 44 44 44 44 44 44 44 45 45 44 44
49 48 48 48 48 48 48 48 47 46 46 46 46 46 46 47 48 47 48 47 47 46 45 45 45 45 45 44 44 44 44 43 43 42 43 43 43 43 44 44 44 44
48 47 47 47 47 47 47 47 47 47 47 47 46 46 46 46 46 46 47 47 47 47 47 47 45 43 43 43 44 43 43 42 42 42 42 42 42 42 43 43 43 43
46 46 47 47 46 46 46 46 46 47 46 46 47 47 46 46 46 45 45 46 46 46 46 45 42 42 43 43 42 42 43 42 42 42 41 41 41 42 42 42 42 42
45 46 46 46 45 45 45 45 45 45 45 45 45 46 46 46 46 45 46 46 45 46 45 44 43 44 40 38 39 41 41 41 41 41 41 41 41 41 41 42 42 42
45 44 44 44 44 44 43 42 43 43 43 43 44 45 44 45 45 45 46 46 45 45 45 44 43 43 39 40 40 40 41 41 40 40 41 40 40 39 39 40 41 42
43 43 43 43 42 42 42 42 41 40 41 43 42 41 43 44 43 44 45 45 45 45 45 44 45 40 40 40 40 40 40 40 41 40 40 40 40 40 40 41 41 41
42 42 41 42 41 40 41 38 38 39 39 39 39 40 40 41 43 43 43 44 44 44 44 45 45 42 41 40 40 40 40 40 42 41 40 40 40 40 41 41 41 40
41 39 40 41 40 39 40 38 38 38 39 39 39 39 40 40 40 41 42 43 43 43 43 44 44 41 40 40 40 40 40 40 42 42 41 41 41 41 41 41 41 40
40 39 39 38 39 37 37 37 37 37 37 38 39 39 38 38 39 39 38 38 40 40 42 42 42 40 40 39 39 40 40 40 42 42 41 41 41 42 42 42 42 41
38 38 38 38 37 36 36 36 36 36 36 38 37 38 38 39 39 38 37 37 38 37 38 40 42 40 39 39 39 39 40 40 41 41 41 41 41 42 42 43 43 42
38 36 35 35 35 34 34 34 35 35 36 37 35 36 37 37 36 37 37 37 36 37 37 38 40 40 39 38 38 39 39 39 39 39 39 40 41 41 42 43 43 42
36 35 33 33 33 32 33 34 34 35 35 36 35 35 35 35 36 37 37 37 36 35 36 36 36 36 37 37 37 38 37 37 39 38 37 37 38 40 41 42 42 36
35 33 32 32 32 32 32 32 32 33 34 35 35 35 34 36 37 36 36 36 36 36 35 35 35 36 37 37 37 37 38 37 38 38 37 37 37 38 41 41 41 39
33 32 31 31 30 31 31 32 33 34 33 33 33 34 35 36 36 35 34 35 36 36 36 36 35 35 36 36 36 36 37 37 37 38 37 36 37 37 37 38 40 40

ECMWFNIL_sfc_temp_093.txt.gz
Temp
61 62 62 62 62 62 62 62 63 63 63 64 64 64 65 66 66 65 65 65 65 64 64 64 64 64 64 64 63 61 59 59 59 60 59 58 57 57 57 57 57 56
62 62 62 62 62 62 62 62 61 61 61 62 63 64 65 65 65 64 63 63 63 63 63 63 63 63 63 63 63 63 62 62 61 61 58 57 57 57 57 57 57 57
61 61 61 61 61 61 62 62 62 62 62 62 62 63 62 62 61 62 61 61 61 61 62 62 61 61 61 61 60 60 60 60 60 60 59 58 59 58 57 57 56 56
59 59 60 60 60 60 61 60 61 61 62 61 61 62 62 61 60 59 59 57 58 59 60 60 60 61 61 60 60 59 59 59 59 58 57 57 57 57 57 57 57 56
58 58 59 59 59 59 59 59 59 59 59 60 60 60 60 60 60 59 59 58 58 58 58 58 58 57 57 58 57 56 56 56 57 57 55 54 55 55 55 55 54 54
58 58 58 58 58 58 58 58 58 58 58 58 58 59 59 58 57 57 57 57 57 57 57 57 57 57 56 55 54 53 53 53 54 54 53 52 53 54 54 54 53 53
57 57 57 58 58 57 58 57 57 57 57 56 56 56 56 56 56 56 56 56 56 56 55 55 56 56 56 55 54 53 53 52 52 52 51 51 51 51 52 52 51 51
56 56 56 56 57 56 55 55 55 55 55 55 55 56 56 55 55 55 55 55 54 54 54 54 54 55 55 54 53 52 51 51 51 50 50 49 49 49 50 50 50 49
55 54 55 55 54 54 53 53 53 54 54 53 54 54 55 54 54 53 53 53 52 52 52 52 51 51 51 51 50 50 49 49 49 49 48 47 47 48 48 49 48 47
54 53 53 53 53 52 51 52 52 52 52 52 52 53 53 53 53 52 52 51 51 51 51 50 49 49 49 48 48 48 47 46 47 47 47 47 46 46 46 46 46 46
53 53 52 51 51 52 50 51 50 51 51 51 51 51 51 51 51 51 51 51 50 50 50 50 49 49 48 47 47 47 46 45 45 45 45 45 45 45 42 44 44 44
52 51 51 51 51 51 50 50 50 50 50 50 50 49 49 49 50 49 50 49 50 50 50 49 49 48 47 46 46 46 46 45 44 44 44 44 44 44 44 44 43 43
50 50 50 50 50 50 50 50 49 49 48 48 48 48 48 48 48 48 48 48 48 49 48 48 48 48 48 47 46 46 46 44 43 43 42 42 42 42 42 42 42 42
49 49 49 48 48 49 48 48 48 47 47 47 47 47 47 47 47 46 46 47 48 48 48 48 47 46 46 46 46 46 45 43 42 41 40 41 41 41 41 41 42 42
48 47 48 48 47 47 46 45 45 45 45 45 46 46 46 46 46 46 46 46 47 47 47 47 46 45 46 45 45 44 44 42 42 41 40 40 40 41 41 41 41 41
47 46 46 46 45 44 44 43 44 43 43 44 44 44 44 45 45 45 46 46 46 46 46 46 46 47 43 40 40 42 42 41 41 40 40 40 40 39 40 41 41 41
45 45 45 44 44 43 42 41 42 42 42 42 42 43 43 44 44 44 45 45 45 45 45 45 46 46 42 43 42 42 41 41 40 40 40 40 40 39 39 40 41 41
43 43 43 43 42 41 41 41 41 41 40 41 41 41 42 43 42 43 44 44 45 45 44 45 45 42 43 43 42 42 41 40 40 40 40 40 40 40 40 40 40 41
42 42 42 42 41 40 41 40 38 39 38 38 38 41 41 42 42 42 42 43 43 43 43 44 44 43 43 42 42 41 41 40 40 41 41 40 41 41 41 41 40 40
42 41 40 41 40 39 39 39 37 38 38 39 38 39 40 39 40 40 41 42 42 41 41 42 43 42 42 42 41 41 41 40 40 40 40 40 41 41 41 41 41 40
40 40 39 39 39 38 36 36 37 36 36 37 38 38 37 37 39 38 39 37 40 40 40 40 41 41 41 41 41 41 41 40 40 40 40 40 41 41 41 41 41 41
39 38 38 38 37 36 35 35 35 35 35 37 37 38 37 38 38 37 37 36 37 37 38 39 41 41 41 40 40 40 40 38 38 39 39 40 40 41 41 42 42 42
38 37 35 35 35 34 33 34 34 34 35 36 35 36 36 36 36 36 37 37 36 36 36 38 39 39 40 39 39 40 39 37 36 37 37 38 39 40 41 41 41 41
36 35 33 32 32 31 32 32 33 34 35 36 35 34 34 35 36 36 37 37 36 35 36 36 36 37 38 39 39 39 38 36 36 36 36 37 38 39 40 41 41 37
34 33 31 31 30 30 30 30 31 32 34 34 34 34 34 36 36 36 36 36 36 35 35 35 36 37 39 39 40 39 38 36 36 36 35 36 37 38 40 40 40 39
31 30 29 29 28 29 29 30 32 32 32 32 32 33 35 36 36 35 33 34 36 36 36 37 37 37 38 39 40 40 39 37 36 35 35 35 36 36 36 37 39 39

ECMWFNIL_sfc_temp_096.txt.gz
Temp
57 57 56 56 54 55 54 53 51 51 51 51 53 52 53 53 54 54 54 54 54 54 55 55 55 56 57 56 56 55 55 55 55 54 55 55 56 56 56 56 56 55
54 53 51 52 53 52 52 52 52 53 52 52 52 52 52 52 52 52 52 52 53 53 54 55 56 57 57 57 57 57 57 57 56 56 54 54 55 55 55 56 55 55
51 51 51 50 50 51 51 52 52 52 52 52 51 51 51 51 50 50 50 50 50 51 51 52 54 55 56 56 55 55 55 55 55 56 55 55 55 54 55 54 54 54
49 50 50 50 50 50 50 50 50 50 50 50 49 51 51 51 49 48 49 47 48 48 48 49 50 52 53 53 53 53 53 53 53 53 53 53 53 53 53 53 53 53
48 49 49 49 48 48 48 49 49 49 49 49 49 49 49 49 48 47 47 46 46 45 46 47 46 49 50 51 51 50 50 50 51 52 51 50 51 51 52 51 51 51
48 48 48 48 48 48 49 48 48 48 48 47 47 47 46 45 44 43 44 44 44 44 44 43 45 45 46 46 47 47 49 49 49 49 48 48 49 49 50 50 49 49
47 47 47 48 48 47 47 47 47 46 46 45 43 44 43 43 42 42 42 42 42 44 43 43 44 44 45 45 44 44 45 46 47 47 47 46 47 47 47 47 47 47
46 45 46 46 46 45 44 44 43 44 43 42 41 42 41 42 42 42 41 42 42 42 42 42 41 43 41 42 42 43 43 46 46 45 45 45 45 45 45 46 46 46
44 43 43 43 43 42 42 42 42 40 40 39 40 41 42 42 42 42 42 41 40 40 40 39 40 38 38 39 40 41 43 43 44 44 43 43 43 43 44 44 44 44
43 42 42 42 41 41 40 39 38 39 39 40 40 41 41 41 41 41 39 39 38 38 37 37 38 37 37 37 39 38 40 42 42 42 42 42 42 42 42 42 42 42
41 40 40 40 40 39 39 39 39 39 40 39 39 39 39 39 39 37 37 38 40 38 39 38 38 38 38 37 37 36 37 39 41 41 42 41 41 42 40 41 41 41
40 40 40 39 39 39 39 39 39 38 38 38 36 38 36 37 36 36 36 37 36 37 37 37 37 36 36 36 36 35 36 37 37 38 39 40 41 41 41 41 40 40
39 39 39 38 38 38 38 38 37 36 35 36 35 35 35 35 35 35 36 35 37 36 37 38 38 37 37 37 36 35 35 36 36 36 37 38 39 39 39 39 40 39
38 37 37 38 36 36 36 36 35 34 34 34 34 34 35 34 35 36 35 35 36 37 38 38 38 38 37 36 35 35 36 35 35 36 36 36 36 36 37 37 38 38
37 37 36 36 35 35 34 34 34 33 33 33 33 34 37 34 35 35 36 37 37 37 37 38 39 40 40 40 39 38 36 36 36 35 35 35 35 35 35 36 36 36
36 35 35 34 34 34 34 33 33 33 33 33 34 34 34 35 35 35 35 36 36 37 36 38 39 40 40 41 41 39 36 36 35 34 34 34 34 34 35 35 36 36
34 35 34 34 34 33 33 33 34 34 33 34 34 34 34 35 35 35 35 35 35 35 36 37 38 39 40 42 43 43 39 35 34 34 33 33 33 34 34 34 35 36
34 34 33 33 33 33 33 33 33 33 33 33 33 33 34 33 33 33 33 33 34 33 34 35 36 38 41 42 42 42 41 37 35 34 34 33 33 33 34 34 35 35
32 33 32 32 32 32 32 32 32 32 32 32 32 32 31 32 32 32 33 33 33 32 33 34 33 38 40 41 41 42 42 40 35 34 33 33 33 33 34 34 35 35
32 32 32 31 31 31 31 31 31 31 30 31 31 30 30 30 30 31 31 31 32 32 32 32 32 36 40 41 41 41 41 40 35 34 34 33 33 34 34 34 34 34
31 31 31 30 30 30 29 29 29 28 29 29 29 29 30 30 31 31 31 31 31 31 31 32 33 38 40 40 41 41 41 40 35 34 33 33 33 33 34 34 34 35
30 30 29 29 29 28 28 27 27 27 28 28 28 28 28 28 29 28 30 30 30 30 31 32 33 38 39 39 40 40 41 36 33 32 32 33 33 34 34 34 34 35
29 28 27 27 26 26 25 26 26 27 27 27 27 28 28 28 28 29 30 30 31 31 30 31 32 35 38 39 39 41 39 33 32 32 32 32 33 35 35 35 35 35
28 27 24 24 23 23 24 24 25 25 25 28 27 27 27 28 28 29 29 29 30 30 30 30 31 34 37 38 40 40 39 35 33 32 32 33 34 35 36 36 36 35
26 25 23 23 22 22 22 22 23 24 26 26 26 25 26 27 29 29 29 28 27 29 31 31 31 33 37 38 40 40 39 34 33 32 32 33 34 34 36 36 36 35
25 23 21 21 20 20 21 22 23 24 24 24 24 25 25 26 26 27 26 28 29 28 30 31 31 32 34 38 39 40 40 37 35 33 32 33 33 34 33 34 35 36

ECMWFNIL_sfc_temp_099.txt.gz
Temp
54 55 54 54 53 53 52 49 47 48 47 47 49 48 48 48 47 49 47 49 48 48 48 49 51 52 53 53 54 54 53 53 54 54 54 54 54 54 54 54 54 54
54 53 51 50 49 49 48 48 48 49 47 46 47 47 48 48 47 48 47 47 47 47 47 48 48 48 50 51 51 52 52 52 52 53 52 52 52 53 53 53 53 53
50 49 49 48 48 47 47 47 47 47 48 46 47 47 47 46 47 46 46 46 46 46 46 46 47 48 48 48 49 49 48 48 48 49 49 49 50 50 51 51 51 50
47 47 47 46 47 47 46 46 46 46 46 45 44 45 46 45 45 44 44 43 44 44 44 44 44 45 46 47 47 46 47 47 48 49 48 48 48 48 49 49 49 49
46 46 46 45 45 45 45 45 44 44 44 43 45 44 45 44 43 42 40 40 40 40 41 41 42 42 42 42 42 42 42 42 45 46 46 45 46 46 47 47 46 46
44 44 44 44 44 44 44 43 43 43 43 43 43 42 42 41 40 39 38 38 37 38 38 37 38 38 38 38 37 38 37 39 40 42 43 43 43 44 45 45 44 44
43 43 43 43 43 43 43 42 41 41 41 39 40 40 38 38 38 37 37 36 37 36 36 36 37 36 35 36 35 35 36 38 41 42 41 41 41 41 42 42 42 42
42 42 42 42 42 41 40 40 39 39 37 38 38 36 37 37 37 36 35 35 35 36 36 36 37 38 35 35 36 36 36 40 37 39 40 40 40 40 40 41 41 41
40 40 40 39 39 39 38 38 37 36 35 37 37 36 35 36 36 36 35 34 35 35 36 36 36 35 34 35 35 35 35 34 34 36 37 38 39 39 39 39 39 39
39 38 38 38 38 37 36 35 35 35 34 35 34 34 36 36 34 34 35 34 35 36 36 36 36 35 34 33 34 34 34 34 34 33 34 35 36 37 37 37 38 38
37 37 37 36 36 35 35 34 34 35 34 34 34 35 34 35 36 34 36 36 36 35 35 35 34 33 34 33 33 32 33 33 33 33 33 34 34 34 35 35 36 36
36 36 35 35 35 35 34 34 34 34 34 34 33 35 34 34 34 35 34 34 33 32 32 32 32 32 33 33 33 32 32 32 32 32 32 33 34 34 34 34 34 35
35 34 34 34 34 34 34 34 33 33 33 33 32 33 33 34 33 33 32 32 32 33 33 33 33 34 33 33 33 32 32 33 32 32 33 32 33 34 34 34 34 34
34 33 33 33 33 33 33 33 33 33 32 32 31 33 33 32 32 32 32 32 32 33 33 33 33 33 33 33 33 33 33 33 33 33 33 33 33 34 34 34 34 34
34 33 32 33 33 33 33 33 32 32 31 31 31 31 33 32 32 32 32 32 32 33 33 33 34 35 34 34 35 34 33 34 34 33 33 32 33 33 33 34 34 34
33 32 32 32 33 33 32 32 31 32 31 30 31 31 32 32 31 32 32 32 32 33 32 34 34 34 36 39 40 36 34 33 33 32 32 32 32 32 32 32 33 33
33 32 32 32 31 31 31 31 31 31 30 30 30 31 31 30 31 30 30 30 30 30 32 34 34 35 38 40 41 41 37 33 33 32 32 31 31 31 31 32 32 33
32 31 31 30 30 30 29 28 28 28 28 28 29 29 29 28 29 29 29 29 30 29 30 32 32 36 39 39 40 41 40 36 33 32 32 32 31 31 31 31 31 32
30 30 30 29 29 28 27 27 26 27 26 27 28 28 27 28 28 28 29 28 28 29 30 31 31 35 38 39 39 40 41 39 34 32 32 32 32 31 31 31 31 32
29 29 28 28 27 27 26 26 26 25 25 25 26 26 27 27 28 28 28 28 29 28 29 30 30 34 38 39 39 40 40 40 34 33 32 31 31 31 32 31 31 31
28 28 28 27 27 26 25 24 25 24 24 26 27 27 27 27 27 27 28 27 28 28 28 29 31 36 37 38 39 39 40 39 33 32 31 31 32 32 31 32 32 32
27 27 27 26 26 24 24 24 24 24 25 26 26 26 26 25 25 24 25 27 27 26 27 28 29 35 37 37 38 39 40 34 32 31 31 32 32 33 33 33 32 32
27 26 26 25 24 24 23 23 23 24 24 26 26 27 26 25 24 24 26 25 25 25 26 27 27 32 36 37 38 39 37 32 32 31 31 31 31 32 33 33 33 33
26 25 24 23 22 22 22 23 22 21 21 25 25 25 24 23 24 24 23 23 23 24 25 26 25 29 35 36 36 37 36 31 30 30 29 30 30 32 32 32 33 32
25 24 23 22 21 21 21 21 21 21 24 25 23 21 22 22 23 23 22 23 21 22 27 26 24 27 33 35 35 36 34 30 30 28 28 28 29 30 31 32 32 32
24 23 22 21 19 20 20 21 23 23 23 22 21 19 20 20 20 19 19 21 21 21 23 24 25 25 29 34 34 34 34 31 29 27 26 27 28 28 28 29 30 30

ECMWFNIL_sfc_temp_102.txt.gz
Temp
52 52 52 51 50 50 50 49 49 48 45 45 47 45 47 44 44 46 43 44 44 45 45 46 46 47 47 48 48 49 49 49 48 48 49 49 49 49 49 49 49 49
50 50 49 49 48 48 48 49 49 48 45 45 45 45 43 44 43 44 44 44 44 44 45 45 45 45 45 46 45 45 45 47 47 48 48 48 47 48 47 48 48 48
49 48 49 49 49 48 47 46 46 45 45 43 43 43 44 42 43 42 42 42 43 42 43 43 43 43 43 43 43 44 45 46 46 47 46 47 47 46 47 47 47 47
47 46 47 46 46 45 45 45 43 43 43 43 42 42 42 41 41 41 40 40 41 41 41 41 41 41 41 40 41 40 41 42 42 42 43 44 44 43 44 44 44 44
45 44 44 44 43 43 44 43 43 42 42 41 41 40 41 40 40 38 37 36 37 37 38 38 38 38 38 38 38 38 37 39 41 41 40 41 42 42 42 41 40 40
42 43 43 43 42 43 42 42 41 41 40 40 39 39 38 38 36 36 35 36 34 35 34 34 34 33 34 34 34 35 33 34 35 36 37 38 38 38 39 38 36 35
41 42 41 41 41 41 41 40 39 39 39 38 36 36 35 35 35 34 34 34 34 33 33 34 34 33 32 32 33 33 32 33 33 34 35 35 35 34 35 35 34 35
40 40 40 40 39 39 38 37 36 36 35 35 35 32 34 34 35 33 33 34 34 34 33 33 34 35 31 31 32 32 32 33 32 32 32 33 32 33 32 32 33 35
38 37 37 37 37 36 36 35 34 34 33 35 34 33 32 32 33 33 33 33 33 32 33 33 33 32 30 31 32 32 32 31 30 32 32 33 33 33 33 32 32 32
36 35 36 35 35 35 34 33 33 33 33 34 32 33 33 32 33 33 33 33 33 33 33 33 33 32 32 30 31 32 32 32 31 31 31 31 31 32 32 32 32 32
34 34 35 34 34 33 33 33 33 33 33 32 33 33 32 33 33 32 33 33 33 33 33 33 32 32 32 32 31 29 31 31 31 31 31 31 31 31 32 31 32 32
34 34 34 34 33 33 33 33 33 33 32 32 32 33 32 32 32 32 32 33 32 32 31 32 31 31 31 32 32 31 30 30 30 30 31 31 32 32 32 31 32 32
34 33 33 33 33 33 32 33 32 32 32 32 31 32 32 32 32 32 31 31 31 31 32 32 32 32 31 30 31 31 31 32 31 31 32 31 32 32 32 32 32 32
32 32 33 32 32 32 32 32 31 31 31 30 31 32 32 31 31 31 30 30 30 30 31 30 30 31 30 31 31 30 31 31 31 31 31 31 31 32 32 32 32 32
32 32 32 32 32 32 32 31 31 30 30 31 31 31 32 30 30 31 31 31 30 30 31 31 32 32 31 32 33 32 30 31 32 31 31 31 31 31 31 31 31 31
32 32 31 31 31 31 30 30 30 30 30 30 30 30 30 30 29 29 29 29 30 30 30 32 32 32 34 38 39 35 32 31 31 30 31 30 30 30 30 31 31 31
32 31 31 31 30 30 29 30 29 29 29 29 29 29 29 28 29 29 29 29 29 29 29 31 31 32 37 39 40 40 34 31 30 30 30 30 29 29 29 29 30 29
31 30 30 29 29 29 28 28 28 28 28 28 28 28 27 28 29 28 28 28 29 28 28 30 30 35 38 38 39 39 39 33 30 30 29 29 29 28 28 28 29 29
30 30 29 28 28 27 27 27 27 27 26 27 26 26 27 28 27 28 28 28 28 28 28 29 28 34 37 38 38 39 39 36 31 29 29 28 28 28 27 28 28 29
29 29 28 27 27 27 27 26 26 25 24 24 24 26 26 27 26 26 27 27 27 27 27 28 28 33 37 37 37 38 38 36 28 28 28 27 27 27 28 28 28 28
28 28 27 27 26 26 25 25 25 24 25 24 25 25 25 25 24 24 26 25 26 27 27 27 29 34 36 36 36 37 37 34 28 28 27 26 27 27 27 27 28 29
28 27 27 26 26 25 25 24 24 24 24 24 24 24 24 24 24 24 24 24 24 23 24 26 28 33 34 35 36 36 35 28 27 27 26 26 26 26 26 27 27 28
27 27 26 25 24 24 24 23 23 23 23 22 23 23 23 24 26 24 23 23 23 23 25 27 27 30 33 34 34 35 32 26 26 25 25 25 25 26 26 27 27 28
26 26 25 24 23 23 23 23 22 21 21 21 22 22 23 25 26 25 25 22 22 24 26 25 23 26 32 33 33 33 32 26 24 24 23 24 25 26 26 26 27 28
25 25 24 23 22 21 21 21 19 19 20 20 21 22 24 24 24 23 22 22 23 24 25 22 19 24 29 31 32 32 30 24 23 22 22 23 24 25 26 26 26 27
24 23 22 21 21 20 19 20 19 19 20 20 22 22 22 22 20 21 20 21 20 17 18 19 20 20 24 30 31 31 32 26 22 22 23 24 25 25 24 25 25 25

ECMWFNIL_sfc_temp_105.txt.gz
Temp
56 56 55 55 54 53 52 51 50 49 47 46 48 46 47 44 43 44 43 43 43 44 43 44 44 44 45 45 46 46 45 46 46 46 46 46 46 46 46 46 46 46
54 53 51 52 50 49 49 50 49 48 46 45 45 44 42 43 41 43 43 43 42 42 42 42 42 42 43 44 44 45 45 46 46 47 46 45 45 45 45 44 44 44
51 51 52 52 50 49 49 49 48 46 45 43 42 42 41 41 41 41 41 41 41 40 41 40 41 40 40 41 43 43 43 43 42 43 43 42 41 42 42 42 40 39
49 50 50 49 49 48 47 47 46 45 44 42 41 40 41 40 40 40 39 39 40 39 39 39 38 38 38 38 39 39 40 40 41 41 40 41 41 41 41 40 40 38
47 47 47 46 45 46 46 46 44 43 42 40 39 39 39 39 38 37 36 35 36 35 36 36 36 36 36 36 36 37 38 39 39 37 37 37 39 39 38 37 36 35
44 44 44 45 45 45 44 43 41 41 40 39 38 38 38 37 36 35 35 35 33 34 34 33 34 33 33 33 33 33 32 33 33 33 34 34 33 32 33 32 32 33
44 44 43 44 43 42 41 40 39 39 39 37 36 35 34 35 35 35 34 34 34 33 34 33 33 33 31 31 32 33 32 32 31 31 32 31 30 31 30 30 31 33
42 41 41 40 40 39 38 37 36 36 35 34 34 32 34 35 34 33 33 34 34 34 33 32 32 33 30 32 32 33 32 31 31 30 31 30 29 31 31 30 30 32
38 37 37 37 36 35 35 34 34 33 33 35 34 33 32 33 33 33 33 33 33 32 32 32 32 31 31 31 30 30 31 30 30 30 30 30 31 31 31 30 31 30
36 35 36 36 35 35 34 33 33 33 33 33 33 33 33 32 32 33 33 33 32 32 33 33 33 32 32 31 31 30 29 29 28 30 31 31 31 31 31 31 31 31
35 35 35 35 34 34 33 33 33 33 33 33 33 33 32 32 31 31 32 32 33 33 33 33 32 32 33 32 31 30 29 28 28 30 30 31 31 31 32 31 31 30
34 34 34 34 34 33 33 33 33 33 33 32 33 33 31 31 31 30 32 32 32 32 32 32 31 31 31 31 31 31 30 30 30 30 30 30 31 31 31 31 31 30
34 34 34 34 33 33 33 33 33 32 33 32 31 32 32 31 31 32 31 32 31 31 32 32 32 32 31 31 31 31 30 31 30 31 31 30 30 31 30 30 30 30
33 33 33 33 33 33 33 32 32 31 31 31 31 31 31 31 31 31 30 31 31 31 31 31 31 31 31 30 30 30 30 31 30 30 30 30 30 30 30 30 30 30
33 33 32 32 33 33 32 32 31 30 30 30 30 30 31 30 30 31 31 31 30 30 31 31 31 32 31 32 32 31 30 31 31 30 29 29 29 29 29 28 28 28
33 33 32 32 32 32 31 31 30 30 30 30 30 30 29 30 30 30 30 30 30 30 30 31 31 31 34 38 38 33 31 30 30 29 28 28 28 28 28 28 28 28
33 32 32 32 31 31 30 30 30 30 30 30 29 29 29 29 30 29 28 28 29 29 29 29 30 32 37 38 38 39 33 30 29 29 28 27 27 26 26 27 27 27
32 32 32 31 30 30 30 30 30 30 30 30 29 29 28 29 29 28 28 28 28 28 28 28 28 35 37 37 38 38 36 30 28 27 27 26 26 26 26 26 26 26
31 31 31 30 30 29 29 30 29 29 29 29 28 27 28 28 27 27 27 27 27 27 27 27 27 35 36 37 37 37 36 31 27 26 25 25 25 25 25 25 25 25
31 31 30 30 29 29 29 29 29 28 27 27 27 27 27 27 26 26 26 26 26 26 26 26 26 33 35 36 36 36 35 31 25 25 25 24 24 24 25 24 24 24
31 31 30 29 29 29 28 28 28 27 26 26 26 26 26 26 26 25 26 25 25 26 26 26 28 33 34 35 35 35 34 30 24 26 24 23 24 24 24 24 24 25
31 30 29 28 28 28 27 27 26 26 26 25 24 24 24 24 24 24 24 24 25 25 25 25 27 32 33 33 34 34 32 24 24 24 23 23 23 23 23 24 24 24
30 29 28 28 27 27 26 25 25 24 24 24 24 24 24 24 24 24 23 24 23 24 24 25 26 29 31 32 33 34 29 22 21 20 22 24 25 25 24 24 24 24
30 29 28 27 26 26 25 25 24 23 23 22 25 24 24 23 23 23 23 23 22 22 25 24 24 26 30 31 32 32 29 23 23 22 23 24 25 26 26 24 24 26
28 28 27 26 25 24 24 24 23 23 22 22 22 22 22 22 22 22 21 21 23 24 25 24 23 24 27 30 31 31 29 25 24 23 23 24 24 23 25 25 23 25
26 26 25 25 24 23 23 23 22 21 21 21 20 21 21 21 21 21 21 22 23 23 23 22 22 21 24 29 29 29 30 26 24 23 22 23 23 23 22 23 24 24

ECMWFNIL_sfc_temp_108.txt.gz
Temp
57 56 57 57 58 57 56 55 55 54 53 51 51 49 49 46 46 47 46 46 44 43 42 43 43 44 45 45 45 46 46 46 45 45 45 45 44 44 43 43 43 42
56 56 55 56 54 53 54 54 53 53 50 50 49 47 45 46 45 46 45 43 41 41 41 42 43 44 44 44 45 44 44 44 42 43 42 42 41 41 40 39 39 40
55 55 55 54 53 52 52 51 50 49 49 47 47 46 44 44 43 42 41 41 40 39 39 40 40 41 42 42 42 42 41 40 39 40 40 39 40 40 39 39 38 37
53 55 55 54 52 51 50 49 48 47 46 45 45 44 44 42 41 40 39 39 39 38 38 38 38 38 39 39 39 39 39 39 39 39 38 38 38 39 38 37 37 36
52 52 52 51 50 50 50 49 47 47 46 44 42 41 40 40 39 37 37 36 37 36 36 36 36 36 37 37 38 37 37 36 36 36 36 36 37 37 36 33 32 31
49 50 50 49 49 49 49 48 47 46 43 43 41 40 39 38 37 36 35 35 35 35 35 34 33 33 34 34 34 34 33 32 32 34 33 32 30 30 31 31 31 31
47 48 48 48 48 48 47 46 44 44 43 41 38 37 36 36 36 36 35 35 34 34 35 35 33 31 32 33 33 32 32 31 31 30 30 29 28 29 29 29 29 30
46 47 46 46 46 45 44 43 42 41 38 37 36 34 35 36 35 34 34 35 35 34 34 33 32 32 32 32 32 31 30 30 30 30 30 29 30 30 29 29 29 30
44 43 44 43 42 41 40 39 38 36 36 36 35 34 34 35 34 34 34 34 34 33 33 32 32 31 31 31 31 30 30 30 30 29 29 30 30 30 30 29 30 29
41 41 41 41 40 39 38 37 36 35 35 35 34 34 33 33 33 34 34 34 33 33 33 32 32 31 30 30 30 30 29 29 29 30 30 30 29 29 29 29 28 29
39 39 40 39 38 37 36 35 35 34 34 35 34 33 33 32 32 33 33 33 33 33 32 32 32 31 31 30 30 29 29 28 29 30 30 30 30 30 31 29 29 29
38 38 38 38 37 36 35 35 34 35 34 34 34 33 32 32 32 32 33 32 32 32 32 31 30 31 31 31 31 30 31 31 30 31 31 31 30 30 30 29 29 29
38 38 37 36 35 35 34 34 34 34 34 33 33 33 33 32 32 32 31 32 32 31 31 31 31 31 31 31 31 31 31 31 31 31 31 30 29 29 29 29 28 28
36 35 35 34 34 34 34 33 33 33 33 32 33 33 33 32 32 32 31 31 31 31 31 31 31 31 31 30 31 31 31 31 30 30 29 29 29 29 29 28 28 28
34 34 33 33 33 33 33 33 33 32 32 32 32 32 32 31 31 31 31 31 31 31 31 31 32 32 32 31 31 31 30 30 30 29 29 28 28 28 28 27 27 27
33 33 33 33 33 33 33 32 32 31 31 31 31 31 30 31 31 31 32 31 30 30 30 31 32 33 35 37 35 30 29 29 29 28 28 28 27 27 26 27 27 26
33 33 33 33 33 33 32 31 31 31 31 30 30 30 30 30 31 31 30 31 30 30 30 31 32 34 37 38 36 34 30 28 28 28 28 27 26 26 25 25 25 25
33 33 33 32 32 32 31 31 31 31 30 30 30 29 30 30 30 30 30 29 29 29 29 30 32 36 38 37 36 34 32 28 27 27 27 26 26 25 25 24 24 24
32 33 32 32 32 31 31 31 30 30 30 30 30 29 30 30 29 29 29 29 29 28 28 28 30 36 37 36 35 34 33 29 26 26 27 27 27 26 25 25 24 24
32 32 32 32 31 31 31 31 30 30 30 30 29 29 29 28 28 27 28 28 28 27 27 28 29 35 36 36 34 33 32 29 26 26 27 27 26 26 26 24 23 23
32 32 32 31 30 30 30 30 30 29 28 28 29 29 28 28 27 26 26 25 26 26 26 27 30 35 35 35 33 32 31 28 26 27 27 26 27 26 26 25 24 24
33 32 31 30 30 30 30 29 29 28 28 27 27 26 26 26 25 26 25 24 24 24 24 25 29 34 34 34 33 31 29 26 26 26 26 26 26 26 26 25 24 23
32 31 30 30 30 29 29 29 28 27 26 26 26 26 26 25 24 24 24 23 23 23 23 23 25 31 33 33 32 30 27 25 25 25 26 26 26 26 26 26 25 23
32 31 30 29 29 29 29 28 27 27 26 26 27 25 24 23 23 22 22 22 22 21 21 21 20 29 32 32 31 30 27 24 25 24 25 24 24 25 25 25 25 25
32 31 30 29 29 29 28 27 26 25 24 24 25 25 23 23 22 21 20 19 20 21 23 21 20 25 31 31 31 30 27 25 24 24 23 23 23 23 25 24 23 24
30 29 29 29 28 27 26 25 24 23 23 23 22 23 22 21 20 20 19 18 19 19 20 20 20 21 27 30 30 30 28 25 24 23 22 22 22 22 21 21 21 21

ECMWFNIL_sfc_temp_111.txt.gz
Temp
61 60 60 59 60 60 58 59 58 57 57 57 56 56 54 52 51 51 49 49 49 48 47 47 47 47 47 48 48 48 48 47 47 47 46 46 45 44 43 44 44 44
60 59 59 59 59 58 58 59 58 58 56 56 56 53 50 49 49 49 48 47 46 45 46 46 47 47 47 47 47 46 45 45 44 45 44 43 42 41 40 41 41 42
59 58 58 58 58 58 58 58 57 57 56 54 52 51 49 49 47 48 47 46 44 44 44 45 45 45 45 45 45 44 43 42 42 42 42 42 42 40 40 39 39 39
58 58 58 58 58 57 56 55 54 52 51 50 50 49 48 47 46 45 44 43 43 42 42 43 42 43 42 42 42 42 42 41 40 40 39 39 40 40 39 39 38 37
57 57 58 57 56 56 54 54 52 51 51 50 47 46 45 45 44 43 42 41 41 40 40 40 40 40 40 40 40 39 38 37 38 39 38 37 37 37 35 35 34 34
56 56 56 56 54 53 53 52 51 50 48 47 46 46 46 45 44 42 41 40 39 38 37 37 37 37 38 38 37 36 35 35 35 37 35 34 33 33 34 34 35 35
53 53 53 53 53 53 53 51 50 49 48 47 44 44 43 42 41 40 40 38 38 37 36 35 35 35 36 36 35 34 34 34 34 35 34 34 34 33 33 34 36 35
51 52 52 51 51 51 50 49 48 48 45 43 43 41 42 41 40 39 39 38 38 37 36 35 35 35 35 35 34 34 33 33 33 34 34 34 35 34 34 34 35 34
49 49 49 49 48 47 47 46 45 43 42 43 41 40 40 40 39 38 38 38 37 36 35 34 34 34 35 36 35 34 33 33 33 35 35 35 35 34 34 35 34 34
47 46 47 46 46 44 43 42 41 41 40 40 40 39 39 38 39 39 38 38 37 36 35 34 34 34 34 34 34 34 34 33 34 35 35 35 34 34 34 34 34 33
44 44 45 44 43 41 40 39 40 39 39 39 38 38 38 38 37 38 38 38 37 36 35 35 34 34 33 33 33 33 33 34 35 35 34 34 34 34 33 33 33 33
42 42 43 42 40 40 39 39 39 39 38 38 39 38 37 37 37 37 38 37 37 36 36 35 35 35 35 34 34 34 35 34 34 34 33 33 33 33 33 33 33 32
40 41 41 40 40 39 39 38 39 38 38 38 38 38 37 37 37 36 36 36 35 35 35 35 35 35 34 34 34 34 34 34 33 33 33 33 32 32 32 32 32 32
39 39 39 39 38 38 38 38 38 38 38 37 37 37 37 37 36 36 35 35 35 35 35 35 35 34 34 34 34 34 34 33 33 33 32 32 31 31 31 31 31 31
38 37 37 37 37 37 37 37 37 37 36 37 37 37 36 36 36 35 34 34 34 34 34 35 35 34 34 34 33 33 33 33 32 32 32 31 31 31 31 31 31 31
37 36 36 37 37 37 36 36 36 35 36 36 36 36 35 35 35 35 35 34 33 34 34 35 35 35 34 34 34 33 33 32 32 31 31 31 30 30 30 30 30 30
36 36 36 36 36 36 35 35 35 35 35 35 34 34 34 34 35 34 34 34 34 34 34 35 35 35 35 36 35 34 32 32 31 31 31 30 30 29 29 29 29 30
36 36 36 35 35 35 35 34 34 34 34 34 33 33 33 34 34 34 33 33 34 34 34 35 35 36 37 36 35 34 32 32 31 30 30 30 29 29 29 29 28 29
35 36 35 35 35 34 34 34 33 33 32 32 32 33 33 33 33 32 32 33 33 33 33 34 36 36 36 36 35 34 33 31 31 30 30 29 29 29 29 28 28 27
35 35 35 34 34 33 33 33 33 33 33 33 32 32 33 32 31 31 31 32 32 33 33 34 35 36 36 35 34 33 32 31 30 30 29 29 29 29 28 28 28 27
35 35 34 33 33 33 32 32 33 33 31 31 31 32 31 30 30 30 30 30 31 32 32 33 34 35 35 34 34 33 32 30 29 29 29 28 29 28 28 28 27 27
35 34 33 33 33 32 32 32 32 31 30 31 31 30 30 30 30 29 28 29 30 31 31 32 34 35 34 34 33 32 31 28 29 29 28 28 28 28 28 28 27 27
35 34 33 33 32 32 32 32 31 30 30 30 29 29 28 28 28 28 28 28 28 29 30 31 33 34 34 33 32 31 29 27 27 27 27 27 27 27 27 27 27 27
35 34 33 32 32 32 32 32 31 31 29 30 29 28 27 27 27 25 26 26 27 27 29 29 30 33 33 32 31 30 28 27 27 26 26 25 26 26 26 27 27 26
34 33 33 32 32 32 32 31 30 29 29 29 29 28 26 26 25 24 23 23 24 25 27 28 29 31 33 32 31 30 28 27 27 26 24 24 24 24 26 25 25 26
33 33 32 32 32 31 31 30 29 27 27 27 26 26 25 24 24 23 22 21 22 23 24 26 28 29 31 32 31 30 29 27 26 25 23 23 23 23 22 23 24 25

ECMWFNIL_sfc_temp_114.txt.gz
Temp
70 71 70 70 69 69 67 66 67 67 64 63 60 60 60 61 62 63 64 62 61 59 57 56 55 55 56 58 60 59 57 53 52 52 52 53 52 52 50 51 52 53
69 70 70 70 68 67 67 67 67 67 64 62 61 61 61 60 60 62 60 59 56 55 56 56 56 57 58 58 57 55 52 52 51 52 52 51 51 50 49 49 50 50
67 68 68 68 67 66 66 67 67 66 64 62 61 60 58 58 57 58 59 56 55 54 54 54 55 57 57 56 53 52 51 52 51 51 50 49 49 49 48 49 49 48
66 67 67 67 67 66 65 65 65 64 62 60 59 58 56 56 56 56 56 53 55 52 51 51 51 52 53 52 52 52 52 51 51 50 49 49 48 48 48 48 47 47
64 64 66 66 67 66 65 64 62 62 60 59 57 55 56 54 53 51 51 51 52 49 49 48 49 50 52 53 52 50 49 48 48 49 48 47 48 47 46 47 46 45
63 63 63 64 64 64 63 62 62 61 59 57 55 55 55 54 52 50 48 47 46 46 45 46 47 49 51 49 49 48 47 47 47 47 46 45 44 44 44 46 45 44
60 61 61 63 63 63 62 62 61 59 58 56 55 54 54 53 53 52 50 46 45 45 44 44 47 47 47 47 46 45 46 45 45 45 44 44 43 42 43 44 45 44
59 59 60 61 61 61 61 60 58 57 56 55 53 52 52 52 51 50 48 46 45 45 43 45 47 46 45 45 45 44 43 43 43 45 45 44 44 43 43 43 43 42
57 57 57 57 57 56 57 55 54 53 52 51 51 48 48 49 48 46 45 44 43 43 45 45 45 44 45 45 44 44 43 43 44 45 45 45 44 43 43 42 42 41
54 54 54 54 54 54 53 52 51 49 49 50 48 48 46 43 43 45 44 45 44 44 45 44 44 44 44 45 44 44 44 44 45 45 45 45 44 43 42 42 41 40
52 51 52 52 52 51 50 48 47 46 46 46 45 45 45 43 41 43 45 46 44 44 44 44 44 44 44 44 44 45 45 44 44 44 44 43 42 41 39 41 41 40
49 49 50 50 48 47 45 44 43 43 43 43 45 44 42 43 43 44 45 45 45 45 45 45 45 45 45 45 44 44 44 44 43 42 41 41 40 40 40 40 40 39
47 48 48 47 45 44 42 42 42 42 42 43 44 44 43 42 44 45 46 46 45 45 45 44 43 44 43 43 43 43 43 42 41 40 39 39 39 39 39 39 39 38
45 43 43 43 42 41 42 41 41 41 42 41 42 43 43 43 45 44 44 45 45 45 44 44 43 43 43 43 43 43 42 41 40 39 38 37 37 38 37 37 37 37
42 41 41 41 40 40 39 40 40 40 40 41 42 43 43 44 44 42 42 43 44 43 43 43 42 41 41 42 41 41 40 39 39 38 37 37 36 36 36 36 36 36
40 39 39 39 40 40 39 39 38 39 39 39 41 42 42 41 41 42 42 42 41 41 41 40 40 40 37 38 39 40 39 38 38 38 37 37 36 35 35 35 35 34
39 38 38 39 39 39 38 38 37 37 38 38 38 39 39 40 40 41 42 41 41 40 40 39 38 37 36 38 38 38 38 39 38 37 37 37 36 35 34 34 34 33
38 38 38 38 37 37 37 38 37 36 36 38 38 37 37 40 40 41 41 41 40 40 40 39 38 36 37 38 38 37 37 39 38 37 37 37 36 36 35 34 33 33
37 38 37 37 37 36 36 36 36 36 35 36 36 37 38 38 40 39 40 40 40 39 38 38 37 36 37 37 37 37 37 37 38 37 37 36 36 35 35 34 34 33
38 37 36 36 36 36 36 36 35 36 36 37 36 37 38 38 37 38 38 39 39 39 39 38 37 36 37 37 36 36 36 37 37 37 36 35 35 35 34 34 34 33
37 37 37 36 35 36 35 36 36 35 35 35 36 36 36 35 36 35 37 36 38 38 38 37 37 36 36 36 36 36 35 36 36 35 35 34 34 34 34 33 33 33
38 38 37 37 36 35 35 35 35 35 35 36 36 37 36 36 36 35 35 35 36 36 37 36 36 36 36 36 36 36 35 34 35 34 34 33 32 32 33 32 32 31
39 38 37 37 36 35 35 35 35 35 35 36 35 35 35 35 34 34 35 35 34 35 35 35 35 35 35 35 35 35 34 33 32 32 31 32 32 32 32 31 31 31
39 38 36 35 35 35 35 36 36 36 35 36 35 34 33 33 34 34 34 34 34 35 35 34 33 34 35 35 35 34 33 32 32 31 30 30 31 31 31 30 30 28
38 37 36 35 35 35 35 35 35 35 35 35 35 34 33 33 33 33 33 33 34 34 34 34 33 33 34 34 34 33 33 32 31 30 28 28 28 28 30 30 29 28
37 36 35 35 35 35 35 35 35 34 33 34 34 34 32 32 32 32 30 31 32 32 33 34 32 33 33 33 33 33 32 31 31 30 28 27 28 27 26 27 28 28

ECMWFNIL_sfc_temp_120.txt.gz
Temp
67 67 67 66 66 66 66 66 66 65 64 64 63 63 63 64 64 64 63 63 63 63 62 62 61 61 60 60 60 60 60 59 58 58 57 56 54 53 52 50 49 48
66 67 66 66 66 65 66 67 66 65 65 64 64 63 63 63 64 64 63 63 62 62 62 62 61 60 60 59 59 59 57 56 55 56 56 54 52 52 50 49 48 47
66 65 66 66 66 66 66 66 66 65 65 64 63 63 63 63 63 63 63 63 62 61 61 61 60 59 59 58 59 57 55 54 53 53 53 52 50 50 49 49 48 46
65 65 66 65 66 66 66 65 64 64 64 63 62 62 63 62 62 62 62 59 62 60 61 59 58 58 58 58 56 54 54 53 52 52 52 50 50 48 47 48 46 45
64 64 64 64 64 64 64 64 64 63 63 64 62 61 61 61 61 61 61 60 59 58 59 58 57 57 57 56 54 52 51 51 51 51 50 48 47 47 46 45 44 42
62 63 63 63 62 62 62 62 63 63 62 61 61 60 61 60 60 60 59 57 55 56 56 55 55 55 54 53 52 52 50 49 49 49 47 45 44 45 45 44 42 40
60 60 60 61 61 61 61 61 61 61 62 61 58 59 59 58 59 59 58 57 55 53 54 54 54 52 52 51 50 49 48 48 47 47 45 42 42 41 41 41 40 39
59 59 60 60 60 60 60 60 60 59 60 56 56 56 58 58 58 57 55 55 54 53 53 53 53 53 51 50 49 47 46 47 46 45 43 40 40 40 40 41 40 39
55 55 56 56 57 57 56 56 57 57 56 56 55 55 55 56 56 55 54 53 53 52 52 51 51 50 50 50 48 47 46 45 45 44 42 40 39 39 39 39 38 38
51 51 51 51 53 53 52 51 54 56 56 56 55 54 54 54 55 54 52 52 50 50 50 50 49 48 47 47 47 46 45 44 43 43 42 40 39 39 38 38 37 37
48 48 50 51 52 51 51 50 52 53 54 56 54 53 53 52 51 51 50 50 49 48 49 48 47 47 46 45 44 43 44 43 42 41 40 39 39 38 38 38 37 37
49 50 52 53 53 53 52 51 51 52 52 52 53 53 51 51 50 48 48 48 48 48 48 46 45 45 44 43 42 42 42 42 41 40 39 38 38 37 37 37 37 36
49 50 51 52 52 52 51 51 51 50 51 51 50 52 50 48 47 48 47 48 47 47 46 45 44 43 42 42 42 42 42 41 40 39 38 38 37 37 36 36 36 36
46 46 46 48 48 48 49 48 48 47 48 46 46 49 48 48 46 46 45 45 46 46 45 44 43 42 42 42 42 42 41 41 40 38 37 36 35 35 35 35 35 36
45 44 44 44 43 44 44 44 44 43 42 42 42 43 45 45 46 45 43 43 42 42 43 43 43 43 43 43 42 41 41 40 39 38 37 36 35 34 34 34 34 34
42 41 40 39 41 41 39 39 39 39 39 39 40 40 40 41 42 42 42 43 42 41 41 42 43 44 41 42 42 42 41 39 38 37 36 36 34 33 33 33 33 32
40 38 38 38 39 38 37 38 39 39 39 39 39 39 40 40 41 41 41 41 41 42 42 42 43 42 40 43 43 42 41 39 37 36 36 35 34 34 32 31 30 30
38 38 38 37 37 38 38 37 37 37 38 38 38 38 39 39 40 41 41 40 39 39 39 39 39 39 42 42 42 42 40 39 38 36 35 35 34 33 32 31 30 30
37 37 37 37 37 37 36 37 37 37 37 37 38 38 37 39 39 39 39 38 39 40 39 38 38 40 42 42 42 42 41 39 37 37 35 34 34 33 32 31 30 29
37 37 37 36 36 36 36 36 36 37 37 36 36 36 37 37 37 38 38 38 38 38 38 38 39 39 42 42 41 41 41 39 36 36 35 35 34 33 32 31 30 30
37 37 36 36 35 35 35 36 36 36 36 36 36 37 37 37 37 37 37 37 37 37 36 36 38 40 41 41 41 41 40 38 36 35 35 34 33 33 32 32 31 31
36 36 36 35 35 35 35 35 35 36 35 36 36 36 36 36 36 37 36 36 36 36 35 35 37 40 40 41 41 41 40 36 35 35 33 33 32 32 32 32 32 31
37 36 35 35 34 34 34 35 35 35 35 35 35 36 36 36 36 36 36 36 36 36 36 36 36 39 40 40 40 40 37 34 33 33 32 32 32 32 32 32 32 32
37 37 35 34 34 34 34 35 35 35 35 35 36 35 36 35 36 35 35 35 35 36 36 35 35 37 39 40 40 39 36 33 33 32 31 30 30 30 31 32 32 31
37 36 35 35 34 34 35 34 34 34 34 35 35 35 35 35 35 35 35 35 35 35 34 35 35 35 38 39 39 38 36 33 33 31 29 29 29 29 30 31 31 31
37 35 35 35 34 34 34 34 34 34 34 35 34 35 35 35 35 35 34 34 34 34 34 35 34 35 36 39 39 38 37 33 32 31 29 28 29 28 27 28 29 30

ECMWFNIL_sfc_temp_123.txt.gz
Temp
64 64 64 63 64 64 64 63 62 62 63 62 62 63 63 63 63 63 64 64 63 63 63 62 61 60 60 60 60 59 59 59 59 59 58 58 57 56 54 52 51 51
64 64 63 63 63 63 64 64 63 63 62 63 63 62 62 62 62 63 63 64 63 63 63 63 61 61 61 60 60 59 58 58 59 59 58 57 56 55 54 52 52 49
64 63 63 63 63 63 63 63 63 63 63 63 62 62 62 61 62 62 63 63 63 63 63 62 62 61 61 61 60 59 58 57 58 57 57 57 55 54 53 52 50 49
63 64 64 64 64 63 63 62 62 62 61 61 61 61 61 60 61 61 62 59 62 62 62 62 61 61 60 60 59 58 58 57 56 55 55 55 54 54 51 50 49 47
63 63 63 64 64 63 61 61 61 62 61 61 59 59 58 59 60 60 61 61 61 60 60 60 60 60 59 59 58 57 55 54 53 53 52 51 51 51 50 49 47 45
62 63 63 63 62 61 60 61 61 61 61 59 59 57 59 60 60 60 60 60 59 59 58 58 58 58 58 58 57 56 54 52 52 53 51 50 48 48 48 48 46 44
60 60 60 61 60 60 61 60 60 58 60 60 57 58 58 59 59 60 60 60 59 57 58 57 57 56 56 56 54 52 52 52 50 51 50 48 46 45 45 46 45 43
57 56 58 57 58 58 58 59 59 58 57 55 57 57 57 58 59 59 59 60 59 58 57 57 57 56 54 54 52 51 50 51 50 50 49 47 45 44 43 43 43 43
53 53 55 54 56 56 56 56 56 54 55 56 56 56 55 57 57 58 58 58 57 56 56 55 55 55 53 53 52 51 49 48 48 48 48 46 45 45 43 42 41 41
48 47 48 49 52 52 53 51 53 54 53 55 55 54 55 54 56 58 57 57 56 54 54 54 53 53 52 52 52 51 50 48 47 47 46 45 46 44 43 42 41 39
45 44 47 48 50 49 50 49 49 51 51 54 53 53 55 54 54 56 56 56 54 53 53 53 52 52 51 51 51 50 49 49 48 47 46 45 44 43 41 42 41 40
45 46 46 46 44 43 44 44 45 47 50 51 53 55 54 54 54 53 53 54 53 53 53 52 51 50 50 50 49 48 47 46 44 44 43 43 42 41 41 41 40 38
46 46 47 47 46 45 43 44 46 46 48 50 50 53 53 52 51 51 50 51 51 52 52 51 50 49 49 48 48 46 45 43 42 41 41 41 41 40 39 39 38 37
44 43 44 45 46 46 46 45 46 46 47 48 47 51 51 51 51 50 49 49 49 49 50 49 48 48 47 46 45 44 42 42 41 40 39 38 38 38 37 36 36 36
42 41 43 43 44 44 45 45 45 43 43 43 44 46 48 47 48 50 48 47 47 47 47 46 46 46 45 44 43 42 41 40 40 39 39 38 37 37 36 36 35 36
42 42 42 42 43 43 43 42 42 42 41 41 42 42 42 43 44 44 46 47 45 44 43 44 45 45 42 42 43 42 41 40 39 38 38 38 37 36 35 35 35 35
41 40 39 40 40 40 40 40 41 39 39 40 40 40 41 41 42 42 41 41 44 44 43 43 44 44 41 43 43 43 42 40 39 39 39 39 38 37 36 34 33 33
40 39 38 38 38 38 38 38 38 38 39 39 38 38 38 38 39 41 41 41 42 41 42 42 42 41 42 42 43 43 41 41 41 39 38 38 38 38 36 34 32 32
37 38 38 37 36 36 36 36 36 37 37 37 37 37 37 37 39 39 39 38 39 40 40 39 39 40 42 42 42 42 42 39 39 39 38 38 38 36 34 33 32 32
37 37 37 36 35 35 35 35 36 36 36 36 36 36 37 37 37 37 37 38 38 39 38 37 37 38 41 42 41 41 41 39 36 36 38 38 37 35 34 33 33 33
37 37 36 35 35 35 35 35 35 35 35 35 36 36 36 37 37 37 37 37 37 37 37 36 38 39 41 41 41 41 41 38 36 37 36 36 36 35 35 34 34 33
36 36 35 35 35 35 35 35 35 35 35 35 35 36 36 36 36 36 36 36 36 37 37 36 36 39 40 41 41 41 40 36 37 37 36 35 35 35 34 33 33 33
36 36 35 35 35 35 35 35 35 35 34 35 35 35 35 36 36 36 36 37 35 36 36 36 35 37 39 40 40 41 38 35 35 35 35 35 34 33 33 33 33 33
36 36 36 35 35 35 35 35 35 34 35 35 35 35 35 35 35 35 35 35 35 35 36 36 35 36 39 39 40 40 37 35 35 35 33 33 33 32 32 32 32 31
36 36 35 35 35 35 35 34 34 35 34 35 35 35 34 34 35 35 34 34 35 35 34 35 35 35 38 39 40 39 37 35 35 34 32 32 31 30 31 31 31 31
36 35 35 35 34 34 34 34 34 34 34 34 34 35 34 34 34 34 34 34 34 34 34 35 34 35 36 39 39 39 38 36 36 35 32 31 31 31 29 30 31 31

ECMWFNIL_sfc_temp_126.txt.gz
Temp
63 63 63 62 63 63 63 62 61 61 61 61 61 62 62 63 61 62 62 63 62 62 62 62 62 61 60 60 60 59 59 59 59 59 58 57 58 58 56 55 54 54
63 62 61 62 62 62 62 63 62 61 61 62 62 62 62 61 62 62 62 62 62 62 63 63 63 62 62 61 60 60 59 59 59 59 58 57 58 57 58 57 55 54
62 62 62 61 62 62 62 62 62 62 62 62 62 61 61 60 61 61 61 62 62 62 63 63 63 62 62 62 61 60 60 59 59 59 58 58 58 57 58 57 55 54
62 62 62 62 62 62 62 61 61 61 61 60 61 61 60 60 60 60 61 58 62 62 62 63 62 62 62 62 61 60 60 60 60 59 58 59 58 58 57 55 54 52
62 62 62 62 62 62 61 60 60 61 60 61 60 59 58 59 59 59 59 60 61 61 62 62 62 62 61 61 60 60 59 59 59 59 58 57 57 57 56 54 52 51
61 62 62 62 62 61 61 60 61 61 60 59 60 57 59 59 59 59 59 59 59 60 60 61 61 61 60 60 60 59 59 58 58 58 57 57 55 54 54 52 51 49
60 59 60 60 60 60 60 60 60 58 59 60 57 58 58 58 58 59 59 58 59 58 60 60 60 60 59 59 58 58 57 57 56 55 55 54 51 49 48 49 49 50
56 54 57 57 57 58 58 59 59 59 59 56 57 58 57 58 58 59 58 58 58 59 60 60 60 60 59 58 57 57 56 55 53 52 53 51 49 48 46 46 46 45
51 52 54 54 55 56 56 57 57 56 54 55 55 56 54 57 57 57 58 58 58 58 59 59 59 58 57 56 56 56 55 54 53 53 52 49 47 47 46 45 44 44
50 50 49 51 52 53 54 53 53 53 52 54 55 54 54 54 55 57 56 57 57 58 58 58 57 57 56 55 56 54 51 50 49 51 52 50 50 49 46 44 44 42
47 47 49 49 51 51 52 52 52 52 52 53 53 53 53 52 52 54 55 56 57 58 57 57 56 56 55 53 53 53 53 52 51 50 50 50 50 50 45 45 45 44
44 43 46 47 47 46 47 46 46 46 49 49 50 53 51 51 53 53 55 56 57 57 57 56 55 53 53 53 52 51 50 52 52 51 51 51 49 48 46 45 45 45
43 44 44 44 43 43 42 41 43 43 45 47 45 49 51 51 51 53 53 55 56 56 55 54 53 53 53 53 53 52 51 50 49 49 49 49 47 46 44 43 43 42
42 43 43 43 44 44 43 42 42 43 43 45 45 49 50 52 52 53 53 53 54 53 52 50 51 51 52 52 52 51 49 48 48 46 44 41 40 39 39 40 40 39
41 40 41 42 43 44 44 44 43 42 42 43 43 45 48 49 50 52 51 50 48 48 51 50 50 48 47 47 47 47 47 46 44 42 41 40 38 38 38 38 38 37
40 40 41 41 42 43 43 42 41 41 41 42 42 41 42 43 45 45 46 46 47 46 47 48 49 49 44 45 46 48 46 45 42 40 40 39 37 36 36 36 37 37
40 39 38 40 39 40 40 40 40 39 39 40 40 40 41 40 41 43 43 44 45 44 42 44 47 47 43 45 45 45 44 42 41 40 39 39 38 37 36 36 35 36
39 39 38 37 37 38 38 38 38 38 38 38 38 39 39 39 39 41 41 40 42 41 42 42 42 42 43 43 44 44 42 41 40 39 39 39 39 39 38 37 36 36
39 39 39 37 36 36 36 37 37 38 38 38 38 37 37 38 39 39 39 39 39 40 40 40 40 41 42 42 42 43 42 40 39 39 38 37 37 37 36 35 34 34
38 38 38 38 37 35 35 36 36 37 36 36 36 35 36 37 37 37 38 37 38 39 38 38 38 39 41 41 41 42 42 40 38 37 36 36 36 35 34 34 34 33
38 38 37 37 36 36 35 35 35 35 35 35 35 36 36 37 36 36 37 37 37 38 38 37 38 39 41 41 41 42 42 39 36 36 36 36 35 35 35 34 34 35
38 37 37 36 35 35 35 35 35 35 35 34 35 35 35 35 35 36 36 36 35 36 36 36 36 39 40 40 41 41 41 36 36 36 35 34 34 34 34 34 33 34
38 37 36 36 35 35 35 35 35 35 34 35 35 35 35 35 35 35 35 35 35 36 36 36 35 37 39 40 41 41 39 36 36 35 35 35 34 34 35 35 35 34
37 37 36 35 35 35 35 35 34 34 34 35 35 35 35 35 35 35 34 35 35 35 37 36 35 35 38 39 40 40 38 35 36 35 34 34 34 34 34 34 33 33
36 36 36 35 35 35 35 35 34 34 34 34 35 35 34 34 35 35 34 34 34 34 35 35 34 34 37 39 39 39 37 35 36 35 34 33 33 32 32 32 32 32
36 35 35 35 35 35 34 34 34 34 34 35 34 35 35 35 35 35 34 34 34 34 34 34 34 34 36 39 39 39 37 35 35 35 34 33 33 32 31 31 31 32

ECMWFNIL_sfc_temp_129.txt.gz
Temp
62 62 62 61 62 62 62 61 61 60 60 60 59 60 60 61 58 59 60 60 60 60 60 60 60 59 59 59 59 58 58 58 58 59 58 58 58 59 58 58 57 57
62 62 61 61 61 61 61 62 61 60 59 59 60 60 60 59 59 59 59 60 60 60 61 60 60 60 60 59 59 59 59 59 59 60 59 59 59 59 59 59 58 57
62 61 61 60 61 61 61 61 60 60 60 60 60 59 59 58 59 59 59 60 60 60 60 60 61 61 61 61 61 60 60 59 59 59 59 59 59 58 59 59 58 57
61 62 61 61 61 61 61 60 59 60 59 58 59 59 59 59 58 59 59 56 59 60 60 60 61 62 62 62 61 60 60 60 60 60 59 59 59 58 58 58 57 56
61 61 61 62 62 61 60 59 59 60 60 60 59 58 57 58 58 58 58 58 59 59 59 60 61 62 61 61 61 60 60 59 60 60 59 58 58 58 58 57 56 56
60 61 61 61 61 60 60 60 60 60 60 59 59 57 58 58 58 58 58 57 57 59 60 61 61 61 61 61 61 60 60 59 59 59 58 58 58 58 58 57 56 54
59 59 59 60 59 60 59 59 59 58 59 59 57 58 57 56 57 57 57 57 58 57 59 60 60 60 61 60 60 59 59 59 58 58 58 57 56 56 55 56 55 55
58 57 58 58 58 58 58 59 59 59 59 56 56 58 56 57 57 57 56 57 57 58 58 59 60 61 60 59 58 58 58 58 57 56 56 57 56 56 54 53 53 53
55 55 55 55 56 57 57 57 58 57 56 56 55 55 54 56 57 56 57 56 57 56 57 58 59 59 59 59 58 58 57 56 56 55 55 54 52 51 51 51 52 53
52 52 51 52 53 54 55 55 55 54 53 54 55 55 54 54 55 57 56 56 56 56 56 57 58 58 58 58 59 58 58 57 55 55 56 56 55 55 53 50 49 46
49 48 50 51 52 52 52 52 51 52 52 53 53 53 54 53 52 53 55 55 56 56 56 57 57 58 58 57 57 57 58 58 56 55 55 55 55 53 49 48 48 49
45 44 47 48 49 48 49 49 48 47 50 49 50 53 52 51 52 52 53 54 55 56 56 57 57 56 57 57 57 56 56 57 56 55 54 54 53 52 51 48 48 47
43 45 45 45 45 46 44 44 45 45 46 48 46 49 50 49 49 51 51 53 54 55 55 55 56 56 56 56 55 54 53 52 50 49 48 48 48 48 46 46 46 45
43 43 44 45 45 44 45 44 45 45 46 46 45 47 48 49 49 50 51 51 53 54 54 54 55 54 54 53 53 53 52 51 52 50 50 48 44 44 42 42 42 42
41 42 42 42 42 43 43 43 43 44 42 43 43 45 47 48 49 50 50 51 51 52 53 53 53 53 52 52 52 52 51 50 50 49 47 45 42 39 38 39 40 40
41 42 43 43 43 43 43 40 40 39 39 40 41 41 42 43 45 47 48 49 49 49 48 48 49 49 47 45 46 51 49 48 45 43 41 40 40 39 37 38 38 38
41 42 41 42 43 41 40 40 40 39 38 39 39 39 40 40 41 45 43 45 46 46 43 44 45 46 44 44 45 46 48 48 46 42 41 40 39 39 38 36 36 36
42 41 40 40 39 40 39 39 38 39 40 39 38 39 38 38 39 42 42 41 43 42 43 43 44 43 45 44 44 44 44 43 41 40 39 39 38 38 37 36 36 36
40 40 40 38 38 38 37 37 38 38 38 38 39 38 36 39 40 39 40 38 40 41 40 39 39 42 43 43 43 43 43 41 38 38 38 38 38 38 37 36 36 35
39 39 39 38 37 36 36 36 37 39 38 38 37 36 38 38 36 38 37 37 38 39 38 38 38 39 42 41 41 42 42 41 39 38 38 38 38 38 37 36 36 35
39 39 39 38 37 36 36 36 37 36 36 36 37 37 38 38 38 37 37 36 36 36 37 37 38 39 41 41 41 42 42 40 38 38 37 37 37 37 37 36 36 36
38 38 37 37 37 37 36 36 36 36 36 35 35 35 35 35 35 36 36 36 36 36 36 36 35 39 40 40 41 42 41 38 37 37 36 36 36 36 36 36 36 36
38 38 37 37 36 36 37 36 36 35 34 35 35 35 36 36 36 35 35 35 35 36 37 36 35 37 39 40 41 42 39 36 37 36 36 36 35 35 35 35 36 36
38 37 37 36 36 36 36 36 36 35 35 35 36 35 35 35 35 34 34 35 35 35 36 35 35 35 38 39 40 41 38 36 36 36 35 35 34 34 35 35 34 34
37 37 37 36 35 35 35 35 35 35 34 34 35 35 35 34 35 35 34 34 34 34 34 35 35 34 37 39 40 40 38 36 36 35 34 34 33 33 33 33 33 33
37 36 36 36 36 35 35 35 35 34 34 35 35 35 35 35 35 35 34 34 34 34 35 35 35 34 35 39 39 39 38 36 36 36 35 34 33 33 32 32 33 32

ECMWFNIL_sfc_temp_132.txt.gz
Temp
61 61 61 61 61 61 62 60 60 59 59 59 58 59 59 60 57 57 57 57 58 58 58 58 58 58 58 58 57 57 57 57 57 57 57 57 57 57 57 57 57 58
61 61 60 60 60 60 61 61 61 60 59 59 60 60 59 58 56 57 57 58 57 58 58 58 58 58 58 57 57 57 57 57 57 57 57 57 58 58 58 58 58 58
60 60 60 59 60 60 60 61 61 60 60 60 59 59 59 56 56 56 57 57 57 57 58 58 58 58 57 57 57 57 57 57 57 57 57 58 58 58 59 59 59 58
60 60 60 60 60 60 60 59 59 59 59 58 57 58 57 56 56 56 57 54 57 57 58 58 58 58 58 58 57 57 57 57 58 58 58 58 59 59 59 59 58 58
59 59 60 60 60 60 60 58 58 58 58 59 58 56 55 56 55 56 56 56 57 57 57 57 58 58 58 58 59 58 58 58 59 59 59 58 59 58 58 58 58 57
59 60 60 60 59 59 58 58 59 58 58 57 58 55 56 57 56 56 56 55 55 56 57 57 58 58 58 59 59 59 59 59 59 59 59 58 58 58 59 58 58 57
58 59 59 59 59 59 58 59 59 57 58 58 57 57 57 56 56 57 57 56 56 56 57 57 58 58 59 59 59 59 59 59 59 59 58 58 57 57 57 57 56 57
58 58 58 58 58 59 58 59 59 58 58 57 57 58 56 56 56 57 56 56 56 57 57 58 59 60 59 59 59 59 59 59 59 58 58 58 57 57 57 57 56 56
55 56 56 56 57 58 57 58 58 58 57 57 56 55 53 56 56 55 56 56 56 56 58 58 59 59 59 59 58 59 58 58 58 58 57 57 57 56 56 56 55 54
52 53 52 53 54 56 56 56 57 56 55 55 56 54 53 53 55 56 55 54 55 55 56 57 57 57 58 58 59 58 58 58 57 57 57 56 56 55 53 51 51 51
50 50 51 52 53 54 54 54 54 53 52 53 54 53 54 53 52 53 53 54 55 55 56 56 56 57 57 58 58 57 57 58 58 57 55 55 55 56 51 53 52 51
48 48 49 51 52 52 52 51 50 49 51 51 52 54 53 52 53 52 53 55 55 56 56 56 56 56 56 57 57 57 56 55 54 54 54 55 55 55 54 52 52 51
46 47 48 48 48 48 47 47 48 47 48 51 49 51 52 52 51 53 52 54 55 55 55 56 56 55 56 56 56 56 56 56 55 54 53 52 53 53 51 48 48 46
42 42 43 45 45 45 46 46 46 46 47 47 45 48 50 51 51 52 52 52 54 54 55 54 55 55 55 55 55 55 54 53 53 53 52 51 47 45 45 45 46 46
38 40 42 43 43 44 44 45 45 45 44 45 46 47 48 48 50 51 51 51 51 52 53 53 53 54 54 53 53 53 53 53 53 52 50 48 45 44 43 44 43 43
38 40 41 42 43 44 45 43 43 42 43 42 44 45 46 46 47 48 49 50 50 50 50 51 51 52 47 47 48 52 51 51 50 47 45 45 43 41 39 39 41 40
38 39 39 41 43 43 42 42 42 41 41 42 42 42 43 42 44 46 47 48 49 49 48 48 48 48 45 46 46 47 49 49 49 47 44 43 43 42 42 39 37 37
39 39 39 40 41 42 41 40 39 39 40 40 40 39 39 39 41 44 45 44 46 45 46 46 46 43 45 45 45 45 45 47 46 45 43 42 41 41 40 38 38 37
39 39 39 39 40 40 40 39 39 39 40 40 40 39 37 39 41 41 42 41 43 43 43 42 42 42 43 44 44 44 44 45 42 42 41 40 40 40 39 38 37 37
39 39 39 39 38 38 38 39 40 41 40 39 39 37 38 39 38 39 39 39 41 42 42 40 40 40 43 43 42 43 43 44 42 41 40 40 39 39 39 38 38 38
39 39 39 39 38 38 38 38 39 39 39 39 39 39 39 40 39 39 38 38 38 39 39 39 39 39 42 42 42 42 43 43 40 39 39 38 38 39 39 39 38 38
39 39 39 38 38 37 37 38 38 38 38 37 37 38 37 38 38 38 38 37 37 38 39 39 38 39 41 41 42 42 43 40 39 39 38 38 37 37 37 36 36 37
39 40 39 38 37 37 37 37 37 37 37 36 37 37 37 37 38 37 37 38 37 37 39 40 38 38 40 40 41 42 41 38 38 37 37 36 36 35 36 36 36 37
39 39 39 37 37 37 37 37 37 36 37 36 38 37 37 37 37 36 36 37 37 37 38 39 38 37 38 40 40 41 39 37 37 37 35 35 34 34 35 35 35 35
38 38 38 37 37 37 37 36 36 36 35 35 36 37 37 37 36 37 36 35 36 37 35 37 37 36 37 39 40 41 38 36 37 36 35 34 34 33 34 34 34 34
38 37 37 37 36 36 36 36 36 36 36 35 35 36 36 36 36 36 36 36 35 35 35 36 36 36 36 39 39 40 39 37 37 37 35 34 34 34 33 33 33 34

ECMWFNIL_sfc_temp_135.txt.gz
Temp
63 64 63 63 64 64 64 63 63 62 62 63 62 62 62 63 62 60 60 61 61 61 61 61 61 61 61 61 61 61 60 60 61 62 60 60 59 59 59 59 60 60
63 63 63 63 63 63 64 64 64 63 63 63 63 63 63 62 60 60 60 60 60 60 61 61 61 61 61 60 60 60 59 60 59 60 60 59 59 59 59 59 59 60
63 62 62 62 62 63 63 64 64 64 63 63 63 63 63 60 60 59 60 60 60 60 60 60 61 60 60 60 60 59 59 59 59 60 59 59 60 59 59 60 60 59
62 62 62 62 63 63 63 63 62 63 63 62 62 62 61 60 59 59 59 57 59 59 60 60 60 60 60 60 59 59 59 59 60 60 59 59 60 60 59 59 58 58
61 61 62 63 63 63 63 61 61 62 62 62 62 60 59 58 58 58 58 58 59 59 59 59 59 60 60 59 59 59 59 59 59 59 58 58 59 58 59 58 58 57
61 61 61 61 62 61 61 61 61 61 61 60 60 60 59 59 58 58 57 57 57 58 58 59 59 59 59 59 59 59 59 58 59 59 58 58 58 59 59 58 58 57
60 60 60 60 60 60 60 60 60 60 60 61 60 59 59 58 57 58 58 58 58 57 58 58 58 58 59 59 58 58 58 59 59 58 57 57 58 58 58 58 57 57
59 59 60 59 59 59 59 59 60 59 60 59 59 59 59 58 58 58 58 58 58 58 58 58 58 59 59 59 58 57 58 59 58 57 57 57 57 57 57 57 57 57
58 58 58 58 58 59 58 59 59 59 59 58 58 58 58 58 58 58 57 58 57 57 58 58 58 58 58 58 58 58 57 58 58 58 57 57 56 57 57 57 57 56
55 56 55 56 56 57 58 58 58 58 58 58 58 58 57 57 58 58 57 57 56 56 57 57 57 58 58 58 58 58 58 58 58 58 58 57 57 57 57 56 56 55
52 52 53 54 55 56 56 57 57 57 56 57 57 56 57 56 55 56 56 56 57 57 57 57 57 58 58 58 58 58 58 58 58 58 57 57 57 58 52 56 55 55
50 50 51 52 53 54 55 55 54 54 55 54 56 58 56 55 55 55 55 56 56 57 57 57 57 57 57 58 58 57 57 58 57 57 57 57 57 57 57 55 55 55
48 49 50 50 51 51 50 50 51 51 52 53 53 55 56 54 54 55 54 55 56 56 56 57 57 56 57 57 57 57 57 56 56 56 56 56 56 55 55 55 55 55
47 46 47 48 48 48 48 49 49 49 50 51 51 52 54 54 54 54 54 54 55 55 56 56 56 56 56 56 56 56 56 56 56 55 54 54 53 53 53 54 53 53
43 42 43 44 46 47 47 48 48 48 48 49 49 50 51 53 53 53 53 53 53 54 55 55 55 55 56 55 55 55 55 55 55 55 54 53 51 49 48 48 49 49
41 40 41 42 44 45 46 46 46 46 46 46 48 48 49 49 50 50 51 52 52 52 53 53 54 55 50 48 49 54 55 55 54 53 52 51 49 47 45 44 45 46
40 40 39 40 42 43 43 43 45 44 43 44 44 44 45 45 47 48 49 50 51 51 51 51 52 52 46 47 48 48 53 54 53 52 50 48 47 47 46 44 43 43
39 38 38 39 39 40 41 41 41 41 42 42 42 42 42 42 43 46 48 48 49 49 50 50 51 45 46 47 47 47 47 51 52 51 50 48 46 45 45 44 43 41
39 38 38 38 39 39 40 40 40 41 41 41 42 42 40 41 44 44 44 44 46 47 47 47 47 45 45 46 46 46 46 47 50 50 47 45 44 45 44 43 42 40
39 38 38 39 38 38 39 40 40 41 41 41 41 40 41 42 41 42 42 43 44 45 45 45 45 44 44 45 45 45 45 46 49 47 45 44 44 43 43 42 41 41
39 39 39 39 38 38 38 39 40 41 41 40 41 41 41 42 41 41 41 41 42 43 44 44 45 43 43 44 44 44 44 44 47 45 44 43 42 42 42 42 42 42
39 39 39 38 38 37 38 38 39 40 41 40 40 40 40 40 40 40 40 40 40 40 41 43 43 42 41 42 43 44 44 44 43 42 41 41 40 40 40 40 39 39
40 39 39 38 38 37 37 38 39 39 39 39 39 40 40 40 40 40 39 40 39 39 40 42 42 41 40 41 42 43 43 42 41 40 40 40 39 39 39 38 38 38
39 39 38 38 38 38 38 38 38 38 38 38 39 39 40 40 39 39 39 39 39 40 40 41 41 39 39 40 41 42 41 41 40 40 38 38 37 37 37 37 37 35
38 38 38 38 38 38 38 38 37 38 38 37 38 39 39 38 38 39 39 38 38 39 36 39 40 38 38 40 40 41 40 40 40 40 38 37 37 36 36 36 36 35
38 38 37 38 38 38 38 38 37 37 37 37 37 38 39 38 38 39 38 38 37 37 37 38 39 39 37 39 40 40 40 39 39 40 39 36 36 36 35 34 35 36